GEFSSGP_prec_meanprecacc_078.txt.gz
Total_Precipitation_Accumulation
0.01 0.07 0.16 0.16 0.15 0.37 0.45 0.29 0.07 0.01 0.00 0.00 0.00 0.00 0.00 0.00 0.02 0.07 0.01 0.00 0.00 0.00 0.00 0.01 0.01 0.01 0.03 0.05 0.06 0.06 0.05 0.02 0.01 0.02 0.04 0.07 0.03 0.01 0.01 0.01 0.01 0.01 0.01 0.01 0.02 0.02 0.01 0.01 0.01
0.01 0.06 0.14 0.12 0.20 0.42 0.40 0.31 0.09 0.03 0.01 0.00 0.00 0.00 0.00 0.00 0.00 0.00 0.00 0.00 0.00 0.00 0.00 0.00 0.01 0.01 0.02 0.03 0.05 0.07 0.07 0.03 0.03 0.05 0.07 0.08 0.05 0.02 0.01 0.01 0.01 0.01 0.00 0.01 0.01 0.02 0.01 0.00 0.00
0.01 0.04 0.11 0.10 0.25 0.29 0.23 0.18 0.04 0.02 0.01 0.00 0.00 0.00 0.00 0.00 0.00 0.00 0.00 0.00 0.00 0.00 0.00 0.01 0.01 0.01 0.02 0.02 0.03 0.07 0.10 0.07 0.06 0.08 0.10 0.08 0.07 0.04 0.03 0.02 0.03 0.02 0.01 0.01 0.01 0.01 0.01 0.00 0.00
0.00 0.01 0.05 0.06 0.18 0.19 0.12 0.08 0.05 0.03 0.01 0.00 0.00 0.00 0.00 0.00 0.00 0.00 0.00 0.00 0.00 0.00 0.00 0.00 0.02 0.02 0.03 0.02 0.02 0.05 0.10 0.09 0.07 0.09 0.12 0.10 0.11 0.13 0.08 0.04 0.05 0.05 0.03 0.01 0.01 0.01 0.01 0.01 0.01
0.00 0.00 0.01 0.03 0.11 0.16 0.14 0.10 0.06 0.03 0.01 0.01 0.00 0.00 0.00 0.00 0.00 0.00 0.00 0.00 0.00 0.00 0.00 0.00 0.02 0.02 0.02 0.02 0.03 0.04 0.05 0.06 0.05 0.06 0.05 0.05 0.08 0.15 0.12 0.08 0.06 0.05 0.04 0.02 0.01 0.01 0.01 0.01 0.01
0.00 0.00 0.00 0.03 0.06 0.10 0.12 0.09 0.07 0.05 0.02 0.01 0.01 0.01 0.00 0.00 0.00 0.00 0.00 0.00 0.00 0.00 0.00 0.00 0.01 0.02 0.01 0.01 0.02 0.04 0.04 0.03 0.02 0.01 0.01 0.02 0.03 0.04 0.07 0.08 0.07 0.05 0.02 0.02 0.02 0.02 0.02 0.02 0.03
0.00 0.00 0.00 0.01 0.02 0.04 0.07 0.05 0.05 0.03 0.02 0.02 0.01 0.01 0.01 0.00 0.00 0.00 0.00 0.00 0.00 0.00 0.00 0.00 0.01 0.01 0.01 0.01 0.01 0.02 0.03 0.02 0.02 0.01 0.01 0.01 0.02 0.03 0.05 0.06 0.06 0.06 0.05 0.04 0.03 0.03 0.03 0.03 0.03
0.00 0.00 0.00 0.00 0.01 0.02 0.02 0.03 0.03 0.02 0.02 0.02 0.01 0.02 0.04 0.01 0.00 0.00 0.00 0.00 0.00 0.00 0.00 0.00 0.01 0.02 0.02 0.02 0.02 0.03 0.03 0.02 0.02 0.01 0.01 0.01 0.02 0.02 0.04 0.05 0.05 0.08 0.09 0.07 0.05 0.04 0.04 0.05 0.04
0.00 0.00 0.00 0.00 0.00 0.01 0.01 0.02 0.03 0.03 0.03 0.03 0.02 0.04 0.04 0.01 0.00 0.00 0.00 0.00 0.00 0.01 0.01 0.01 0.02 0.02 0.03 0.02 0.02 0.03 0.03 0.03 0.03 0.04 0.04 0.04 0.03 0.06 0.12 0.11 0.16 0.15 0.17 0.19 0.17 0.15 0.15 0.13 0.08
0.00 0.00 0.00 0.00 0.00 0.00 0.00 0.01 0.02 0.02 0.05 0.08 0.08 0.07 0.06 0.02 0.00 0.00 0.00 0.00 0.00 0.01 0.01 0.02 0.02 0.02 0.02 0.02 0.03 0.03 0.03 0.05 0.05 0.07 0.14 0.18 0.22 0.18 0.09 0.17 0.30 0.41 0.54 0.50 0.46 0.48 0.38 0.30 0.24
0.00 0.00 0.00 0.00 0.00 0.00 0.00 0.00 0.01 0.02 0.07 0.17 0.28 0.23 0.13 0.05 0.00 0.00 0.00 0.00 0.01 0.01 0.01 0.01 0.02 0.03 0.03 0.03 0.03 0.04 0.05 0.09 0.10 0.11 0.19 0.25 0.24 0.16 0.09 0.16 0.34 0.50 0.64 0.60 0.78 0.88 0.69 0.69 0.69
0.00 0.00 0.00 0.00 0.00 0.00 0.00 0.00 0.01 0.03 0.09 0.24 0.37 0.29 0.14 0.04 0.01 0.01 0.00 0.00 0.01 0.03 0.04 0.03 0.03 0.04 0.05 0.06 0.06 0.07 0.07 0.09 0.10 0.15 0.18 0.26 0.31 0.26 0.26 0.34 0.42 0.54 0.64 0.83 0.82 0.97 0.94 0.88 0.86
0.00 0.00 0.00 0.00 0.00 0.00 0.00 0.00 0.01 0.02 0.06 0.22 0.32 0.23 0.07 0.05 0.03 0.03 0.02 0.03 0.05 0.08 0.11 0.11 0.10 0.11 0.12 0.12 0.13 0.11 0.12 0.15 0.16 0.22 0.31 0.40 0.48 0.52 0.59 0.57 0.60 0.57 0.70 0.89 0.96 0.94 1.11 1.20 1.12
0.00 0.00 0.00 0.00 0.00 0.00 0.00 0.00 0.00 0.02 0.04 0.16 0.25 0.24 0.11 0.07 0.08 0.11 0.16 0.18 0.15 0.20 0.26 0.31 0.33 0.36 0.39 0.39 0.38 0.37 0.37 0.42 0.45 0.49 0.55 0.64 0.73 0.89 0.99 0.95 0.93 0.84 0.89 1.02 1.12 1.12 1.49 1.42 1.37
0.00 0.00 0.00 0.00 0.00 0.00 0.00 0.00 0.01 0.03 0.02 0.09 0.19 0.21 0.17 0.12 0.13 0.15 0.20 0.31 0.41 0.46 0.49 0.59 0.67 0.74 0.80 0.78 0.78 0.80 0.85 0.85 0.85 0.87 0.93 1.00 1.03 1.22 1.31 1.32 1.23 1.24 1.22 1.33 1.33 1.45 1.64 1.38 1.32
0.00 0.00 0.00 0.00 0.00 0.00 0.00 0.01 0.01 0.01 0.02 0.05 0.15 0.31 0.35 0.34 0.34 0.34 0.41 0.60 0.73 0.77 0.84 1.03 1.15 1.22 1.26 1.26 1.26 1.30 1.24 1.17 1.10 1.16 1.29 1.32 1.38 1.55 1.64 1.51 1.42 1.66 1.70 1.68 1.73 1.77 1.76 1.63 1.53
0.00 0.00 0.00 0.00 0.01 0.01 0.00 0.01 0.02 0.02 0.07 0.09 0.16 0.33 0.52 0.68 0.82 0.91 0.93 1.02 1.16 1.35 1.51 1.67 1.73 1.72 1.69 1.71 1.74 1.79 1.74 1.57 1.44 1.46 1.51 1.57 1.54 1.62 1.75 1.59 1.64 1.84 1.87 1.86 1.72 1.95 1.89 1.83 1.72
0.01 0.01 0.01 0.02 0.01 0.02 0.01 0.01 0.02 0.02 0.06 0.15 0.28 0.50 0.74 1.04 1.39 1.51 1.56 1.58 1.61 1.71 1.94 2.05 2.07 2.24 2.34 2.34 2.24 2.20 2.02 1.80 1.74 1.77 1.82 1.79 1.72 1.74 1.86 1.73 1.79 1.93 1.97 1.90 1.91 1.97 1.98 1.85 1.75
0.02 0.02 0.03 0.03 0.01 0.01 0.02 0.02 0.02 0.06 0.12 0.15 0.27 0.54 0.82 0.97 1.27 1.52 1.57 1.68 1.75 2.01 2.24 2.44 2.88 3.03 2.95 2.76 2.46 2.28 2.16 2.10 2.01 1.89 1.77 1.75 1.76 1.84 1.99 1.86 1.95 1.95 1.81 1.80 1.96 2.05 1.85 1.64 1.76
0.01 0.01 0.01 0.03 0.02 0.01 0.01 0.02 0.04 0.08 0.12 0.13 0.22 0.40 0.65 0.97 1.22 1.41 1.46 1.44 1.69 2.15 2.44 2.47 2.42 2.55 2.62 2.54 2.44 2.40 2.43 2.19 1.98 1.87 1.72 1.62 1.67 1.77 1.79 1.79 1.75 1.75 1.75 1.74 1.78 1.95 1.75 1.42 1.59
0.01 0.01 0.01 0.04 0.04 0.02 0.02 0.11 0.15 0.19 0.19 0.28 0.40 0.56 0.71 1.02 1.26 1.36 1.38 1.35 1.42 1.57 1.76 1.87 1.90 1.82 1.80 1.87 2.02 2.09 2.14 1.96 1.79 1.71 1.66 1.56 1.54 1.50 1.51 1.52 1.64 1.83 1.87 1.73 1.69 1.72 1.64 1.36 1.35
0.03 0.02 0.01 0.01 0.01 0.03 0.06 0.20 0.34 0.30 0.38 0.49 0.56 0.71 0.92 1.16 1.12 1.16 1.23 1.18 1.22 1.32 1.41 1.43 1.46 1.45 1.48 1.59 1.69 1.70 1.69 1.60 1.58 1.59 1.50 1.45 1.40 1.36 1.34 1.37 1.41 1.45 1.52 1.50 1.38 1.45 1.53 1.48 1.28
0.02 0.01 0.00 0.00 0.01 0.03 0.10 0.21 0.38 0.53 0.59 0.58 0.66 0.67 0.86 0.95 0.87 0.84 0.90 0.91 0.94 0.97 1.08 1.17 1.25 1.25 1.27 1.29 1.34 1.38 1.37 1.38 1.40 1.34 1.28 1.22 1.19 1.25 1.25 1.20 1.18 1.14 1.18 1.28 1.29 1.33 1.34 1.36 1.30
0.01 0.01 0.02 0.04 0.06 0.15 0.24 0.28 0.45 0.66 0.71 0.58 0.62 0.67 0.78 0.80 0.78 0.84 0.82 0.78 0.81 0.88 0.98 1.05 1.10 1.12 1.13 1.14 1.16 1.17 1.18 1.19 1.18 1.15 1.15 1.12 1.08 1.02 1.01 1.04 1.05 1.03 1.08 1.16 1.23 1.26 1.19 1.22 1.25
0.02 0.03 0.17 0.33 0.43 0.48 0.34 0.30 0.49 0.60 0.58 0.56 0.61 0.73 0.80 0.74 0.69 0.68 0.68 0.70 0.75 0.77 0.77 0.79 0.82 0.87 0.84 0.83 0.88 0.89 0.90 0.89 0.91 0.91 0.88 0.82 0.74 0.73 0.76 0.76 0.84 0.89 0.98 1.01 1.01 1.08 1.15 1.25 1.27
0.04 0.07 0.27 0.34 0.24 0.27 0.28 0.41 0.67 0.70 0.64 0.59 0.65 0.73 0.67 0.58 0.54 0.53 0.53 0.53 0.56 0.54 0.52 0.55 0.60 0.67 0.71 0.70 0.70 0.62 0.58 0.57 0.56 0.65 0.65 0.61 0.57 0.55 0.60 0.69 0.81 0.90 0.94 0.94 0.97 0.97 1.02 1.15 1.24
0.09 0.12 0.15 0.28 0.21 0.21 0.27 0.50 0.70 0.70 0.69 0.74 0.83 0.83 0.72 0.57 0.45 0.41 0.40 0.38 0.36 0.36 0.39 0.46 0.52 0.56 0.61 0.60 0.56 0.51 0.46 0.43 0.43 0.47 0.53 0.53 0.58 0.53 0.57 0.65 0.76 0.88 0.99 1.02 1.00 1.01 1.09 1.23 1.30
0.08 0.09 0.11 0.24 0.28 0.28 0.24 0.54 0.78 0.93 0.93 0.85 0.89 0.77 0.57 0.43 0.33 0.29 0.25 0.24 0.24 0.25 0.30 0.38 0.42 0.42 0.43 0.44 0.43 0.38 0.36 0.37 0.39 0.40 0.42 0.44 0.46 0.49 0.54 0.62 0.68 0.71 0.77 0.82 0.83 0.91 1.03 1.17 1.23
0.09 0.13 0.20 0.29 0.29 0.36 0.37 0.49 0.55 0.66 0.77 0.84 0.78 0.60 0.40 0.28 0.21 0.19 0.19 0.20 0.21 0.21 0.25 0.32 0.39 0.42 0.43 0.42 0.41 0.35 0.30 0.29 0.30 0.31 0.33 0.38 0.41 0.43 0.48 0.53 0.54 0.54 0.55 0.57 0.62 0.73 0.87 0.94 0.95
0.08 0.11 0.20 0.32 0.29 0.31 0.37 0.42 0.28 0.30 0.40 0.44 0.42 0.34 0.27 0.21 0.19 0.21 0.23 0.23 0.21 0.23 0.27 0.34 0.39 0.44 0.48 0.49 0.50 0.46 0.40 0.36 0.34 0.32 0.30 0.31 0.34 0.38 0.41 0.43 0.44 0.43 0.45 0.52 0.57 0.65 0.73 0.80 0.79

GEFSSGP_prec_meanprecacc_084.txt.gz
Total_Precipitation_Accumulation
0.01 0.07 0.17 0.19 0.20 0.45 0.56 0.40 0.15 0.04 0.01 0.01 0.00 0.00 0.00 0.00 0.02 0.07 0.01 0.00 0.00 0.00 0.00 0.01 0.01 0.01 0.03 0.05 0.06 0.07 0.05 0.02 0.01 0.02 0.04 0.07 0.03 0.01 0.01 0.01 0.01 0.01 0.01 0.01 0.02 0.02 0.01 0.01 0.01
0.01 0.07 0.16 0.16 0.30 0.60 0.53 0.39 0.13 0.05 0.02 0.01 0.01 0.00 0.00 0.00 0.00 0.00 0.00 0.00 0.00 0.00 0.00 0.00 0.01 0.01 0.02 0.03 0.05 0.07 0.07 0.04 0.03 0.05 0.07 0.08 0.05 0.02 0.01 0.01 0.01 0.01 0.01 0.01 0.01 0.02 0.01 0.00 0.00
0.01 0.04 0.12 0.15 0.41 0.51 0.39 0.24 0.06 0.05 0.03 0.02 0.01 0.01 0.00 0.00 0.00 0.00 0.00 0.00 0.00 0.00 0.00 0.01 0.01 0.01 0.02 0.02 0.03 0.07 0.10 0.07 0.06 0.09 0.10 0.08 0.07 0.05 0.03 0.03 0.03 0.02 0.01 0.01 0.01 0.02 0.01 0.00 0.00
0.00 0.02 0.05 0.09 0.27 0.30 0.20 0.12 0.07 0.05 0.03 0.02 0.01 0.01 0.01 0.00 0.00 0.00 0.00 0.00 0.00 0.00 0.00 0.00 0.02 0.03 0.03 0.02 0.02 0.05 0.10 0.09 0.08 0.09 0.12 0.10 0.12 0.13 0.08 0.04 0.05 0.05 0.03 0.02 0.01 0.01 0.01 0.01 0.01
0.00 0.00 0.02 0.06 0.14 0.20 0.17 0.11 0.08 0.06 0.03 0.02 0.02 0.03 0.05 0.02 0.00 0.00 0.00 0.00 0.00 0.00 0.00 0.00 0.02 0.03 0.02 0.02 0.03 0.04 0.06 0.07 0.05 0.06 0.06 0.06 0.09 0.16 0.12 0.08 0.06 0.06 0.04 0.02 0.01 0.01 0.01 0.01 0.01
0.00 0.00 0.01 0.03 0.06 0.11 0.14 0.10 0.08 0.07 0.02 0.02 0.02 0.04 0.07 0.01 0.00 0.00 0.00 0.00 0.00 0.00 0.00 0.00 0.01 0.02 0.01 0.01 0.02 0.04 0.04 0.03 0.02 0.02 0.01 0.02 0.03 0.04 0.07 0.08 0.07 0.05 0.03 0.02 0.02 0.02 0.02 0.02 0.03
0.00 0.00 0.00 0.01 0.02 0.05 0.08 0.06 0.05 0.04 0.03 0.03 0.02 0.04 0.05 0.02 0.01 0.00 0.00 0.00 0.00 0.00 0.00 0.00 0.01 0.01 0.01 0.01 0.02 0.02 0.03 0.02 0.02 0.01 0.01 0.02 0.02 0.03 0.06 0.06 0.06 0.07 0.05 0.04 0.03 0.03 0.03 0.03 0.03
0.00 0.00 0.00 0.00 0.01 0.02 0.02 0.03 0.03 0.03 0.03 0.03 0.02 0.06 0.09 0.04 0.01 0.00 0.01 0.01 0.01 0.01 0.00 0.01 0.01 0.02 0.02 0.02 0.02 0.03 0.03 0.03 0.02 0.02 0.01 0.01 0.02 0.03 0.05 0.05 0.06 0.09 0.10 0.08 0.06 0.04 0.04 0.05 0.04
0.00 0.00 0.00 0.00 0.00 0.01 0.01 0.02 0.03 0.03 0.03 0.04 0.04 0.10 0.08 0.04 0.01 0.01 0.02 0.02 0.03 0.03 0.02 0.01 0.02 0.02 0.03 0.02 0.02 0.03 0.03 0.03 0.03 0.04 0.05 0.04 0.03 0.06 0.13 0.13 0.18 0.18 0.21 0.22 0.19 0.16 0.15 0.14 0.08
0.00 0.00 0.00 0.00 0.00 0.00 0.00 0.01 0.02 0.02 0.05 0.08 0.11 0.16 0.13 0.07 0.07 0.05 0.05 0.06 0.08 0.06 0.04 0.03 0.02 0.03 0.03 0.02 0.03 0.04 0.04 0.06 0.05 0.07 0.15 0.19 0.23 0.19 0.12 0.20 0.35 0.48 0.61 0.57 0.51 0.52 0.41 0.32 0.25
0.00 0.00 0.00 0.00 0.00 0.00 0.00 0.00 0.01 0.02 0.08 0.18 0.31 0.28 0.17 0.11 0.09 0.12 0.15 0.12 0.13 0.12 0.08 0.05 0.05 0.05 0.05 0.05 0.06 0.07 0.07 0.11 0.12 0.13 0.22 0.28 0.28 0.21 0.15 0.22 0.41 0.59 0.76 0.69 0.87 0.96 0.74 0.72 0.71
0.00 0.00 0.00 0.00 0.00 0.00 0.00 0.00 0.01 0.03 0.10 0.24 0.38 0.31 0.17 0.11 0.08 0.08 0.17 0.24 0.23 0.19 0.15 0.11 0.10 0.10 0.09 0.09 0.11 0.11 0.12 0.14 0.16 0.22 0.27 0.40 0.47 0.42 0.39 0.47 0.55 0.67 0.80 1.01 0.98 1.11 1.05 0.96 0.92
0.00 0.00 0.00 0.00 0.00 0.00 0.00 0.00 0.01 0.02 0.07 0.23 0.34 0.26 0.12 0.15 0.17 0.28 0.43 0.38 0.30 0.27 0.22 0.21 0.20 0.19 0.18 0.18 0.19 0.19 0.20 0.24 0.26 0.37 0.51 0.65 0.75 0.73 0.76 0.73 0.78 0.77 0.97 1.19 1.22 1.16 1.32 1.36 1.23
0.00 0.00 0.00 0.00 0.00 0.00 0.00 0.00 0.01 0.02 0.04 0.17 0.27 0.29 0.21 0.26 0.27 0.34 0.62 0.63 0.47 0.45 0.43 0.43 0.45 0.48 0.49 0.49 0.50 0.49 0.48 0.58 0.68 0.71 0.74 0.85 0.96 1.13 1.22 1.13 1.09 1.02 1.08 1.25 1.38 1.37 1.72 1.63 1.56
0.00 0.00 0.00 0.00 0.00 0.00 0.00 0.01 0.02 0.04 0.04 0.12 0.26 0.32 0.34 0.35 0.36 0.31 0.40 0.67 0.79 0.71 0.67 0.74 0.83 0.90 0.95 0.93 0.92 0.93 0.97 1.00 1.02 1.03 1.11 1.18 1.19 1.39 1.49 1.51 1.40 1.41 1.39 1.51 1.52 1.66 1.85 1.59 1.53
0.00 0.00 0.00 0.00 0.00 0.00 0.01 0.03 0.05 0.05 0.07 0.12 0.26 0.46 0.51 0.46 0.49 0.50 0.54 0.77 0.92 0.94 0.99 1.17 1.28 1.36 1.39 1.37 1.37 1.39 1.32 1.27 1.22 1.29 1.42 1.44 1.49 1.68 1.77 1.64 1.55 1.78 1.83 1.84 1.89 1.94 1.96 1.82 1.74
0.00 0.00 0.00 0.00 0.01 0.01 0.02 0.05 0.08 0.10 0.18 0.25 0.32 0.49 0.64 0.77 0.91 1.01 1.03 1.11 1.27 1.46 1.62 1.78 1.84 1.84 1.79 1.79 1.80 1.86 1.81 1.63 1.51 1.54 1.60 1.65 1.62 1.71 1.86 1.69 1.73 1.96 2.04 2.02 1.85 2.09 2.06 1.99 1.87
0.01 0.01 0.02 0.03 0.03 0.03 0.06 0.08 0.11 0.13 0.20 0.37 0.60 0.72 0.84 1.11 1.45 1.56 1.61 1.64 1.67 1.77 2.02 2.13 2.17 2.37 2.45 2.41 2.29 2.25 2.06 1.85 1.79 1.81 1.86 1.84 1.77 1.81 1.95 1.82 1.89 2.05 2.12 2.04 2.05 2.15 2.16 2.02 1.93
0.03 0.03 0.04 0.05 0.03 0.05 0.13 0.22 0.23 0.24 0.35 0.43 0.59 0.76 0.95 1.04 1.31 1.54 1.60 1.71 1.78 2.06 2.30 2.52 2.96 3.12 3.03 2.81 2.49 2.31 2.19 2.14 2.06 1.93 1.80 1.78 1.79 1.88 2.03 1.92 2.04 2.06 1.94 1.93 2.09 2.22 2.06 1.84 1.97
0.03 0.04 0.03 0.06 0.05 0.05 0.11 0.24 0.29 0.38 0.51 0.52 0.55 0.63 0.77 1.06 1.26 1.43 1.49 1.45 1.70 2.17 2.47 2.50 2.46 2.59 2.65 2.57 2.47 2.43 2.47 2.24 2.03 1.92 1.75 1.64 1.69 1.80 1.83 1.85 1.83 1.86 1.89 1.89 1.95 2.11 1.92 1.59 1.75
0.02 0.03 0.04 0.08 0.07 0.06 0.10 0.29 0.41 0.50 0.56 0.64 0.75 0.78 0.85 1.09 1.30 1.40 1.41 1.36 1.42 1.58 1.77 1.89 1.92 1.84 1.83 1.90 2.05 2.13 2.18 1.99 1.82 1.73 1.67 1.58 1.55 1.52 1.53 1.56 1.69 1.89 1.97 1.86 1.86 1.90 1.79 1.50 1.49
0.04 0.03 0.02 0.02 0.04 0.09 0.17 0.44 0.66 0.60 0.67 0.83 0.84 0.84 1.00 1.21 1.16 1.17 1.23 1.19 1.22 1.32 1.42 1.44 1.46 1.46 1.50 1.60 1.71 1.72 1.71 1.62 1.59 1.60 1.52 1.46 1.41 1.37 1.35 1.38 1.42 1.48 1.57 1.58 1.50 1.61 1.70 1.64 1.45
0.03 0.02 0.02 0.02 0.04 0.07 0.17 0.39 0.70 0.93 0.96 0.88 0.84 0.78 0.92 0.98 0.89 0.85 0.90 0.91 0.94 0.97 1.08 1.17 1.26 1.26 1.27 1.30 1.35 1.39 1.38 1.39 1.41 1.35 1.28 1.22 1.20 1.26 1.25 1.21 1.19 1.15 1.21 1.33 1.35 1.45 1.48 1.50 1.46
0.02 0.03 0.05 0.09 0.10 0.21 0.29 0.40 0.72 1.03 1.17 0.93 0.84 0.77 0.83 0.83 0.80 0.85 0.83 0.79 0.81 0.89 0.98 1.05 1.11 1.13 1.14 1.15 1.17 1.18 1.18 1.19 1.19 1.15 1.16 1.13 1.08 1.02 1.01 1.04 1.06 1.04 1.09 1.18 1.26 1.32 1.28 1.35 1.38
0.03 0.05 0.21 0.38 0.48 0.57 0.43 0.52 0.87 0.92 0.91 0.84 0.80 0.83 0.83 0.76 0.71 0.69 0.69 0.71 0.76 0.77 0.77 0.79 0.82 0.88 0.84 0.83 0.88 0.90 0.90 0.90 0.91 0.91 0.88 0.83 0.75 0.73 0.76 0.76 0.85 0.90 0.99 1.02 1.02 1.11 1.19 1.32 1.38
0.06 0.09 0.32 0.41 0.33 0.43 0.44 0.71 1.09 0.89 0.83 0.75 0.76 0.85 0.79 0.63 0.56 0.55 0.53 0.54 0.57 0.54 0.52 0.55 0.60 0.67 0.71 0.70 0.70 0.62 0.58 0.57 0.57 0.65 0.65 0.61 0.57 0.55 0.61 0.70 0.82 0.90 0.95 0.95 0.98 0.98 1.04 1.18 1.30
0.10 0.14 0.18 0.32 0.27 0.32 0.43 0.70 0.92 0.79 0.77 0.80 0.89 0.92 0.83 0.62 0.48 0.43 0.40 0.39 0.37 0.36 0.40 0.46 0.52 0.56 0.61 0.60 0.56 0.51 0.46 0.43 0.43 0.47 0.53 0.53 0.58 0.53 0.57 0.65 0.76 0.89 1.00 1.03 1.01 1.02 1.11 1.25 1.32
0.10 0.10 0.12 0.26 0.30 0.33 0.34 0.67 0.88 0.98 0.96 0.88 0.91 0.80 0.58 0.44 0.34 0.29 0.25 0.24 0.24 0.25 0.30 0.38 0.42 0.42 0.43 0.44 0.43 0.38 0.36 0.37 0.39 0.40 0.42 0.44 0.47 0.49 0.54 0.62 0.69 0.71 0.77 0.83 0.83 0.92 1.04 1.18 1.24
0.11 0.14 0.21 0.29 0.29 0.37 0.42 0.56 0.58 0.67 0.79 0.85 0.79 0.61 0.40 0.29 0.21 0.20 0.20 0.20 0.21 0.21 0.25 0.32 0.39 0.42 0.43 0.42 0.41 0.35 0.30 0.29 0.30 0.31 0.33 0.38 0.41 0.44 0.48 0.54 0.54 0.55 0.55 0.57 0.63 0.74 0.88 0.95 0.96
0.08 0.12 0.20 0.32 0.29 0.31 0.38 0.45 0.29 0.31 0.42 0.45 0.42 0.34 0.27 0.21 0.19 0.21 0.23 0.23 0.21 0.23 0.27 0.34 0.39 0.44 0.48 0.49 0.50 0.46 0.40 0.36 0.34 0.32 0.30 0.31 0.34 0.38 0.41 0.43 0.45 0.44 0.46 0.52 0.58 0.66 0.74 0.81 0.80

GEFSSGP_prec_meanprecacc_090.txt.gz
Total_Precipitation_Accumulation
0.01 0.07 0.17 0.19 0.21 0.46 0.56 0.41 0.15 0.04 0.02 0.02 0.02 0.02 0.01 0.01 0.03 0.08 0.01 0.00 0.00 0.00 0.00 0.01 0.01 0.01 0.03 0.05 0.06 0.07 0.05 0.02 0.01 0.02 0.04 0.07 0.03 0.01 0.01 0.01 0.01 0.01 0.01 0.01 0.02 0.03 0.02 0.01 0.01
0.01 0.07 0.16 0.17 0.30 0.61 0.54 0.39 0.13 0.05 0.02 0.02 0.02 0.01 0.01 0.00 0.00 0.00 0.00 0.00 0.00 0.00 0.00 0.01 0.01 0.01 0.02 0.03 0.05 0.08 0.07 0.04 0.03 0.05 0.07 0.08 0.05 0.02 0.01 0.01 0.01 0.01 0.01 0.01 0.01 0.02 0.01 0.01 0.00
0.01 0.04 0.12 0.15 0.41 0.52 0.40 0.24 0.07 0.05 0.03 0.02 0.02 0.01 0.00 0.00 0.00 0.00 0.00 0.00 0.00 0.00 0.00 0.01 0.01 0.01 0.02 0.02 0.04 0.07 0.10 0.07 0.06 0.09 0.10 0.08 0.07 0.05 0.03 0.03 0.04 0.03 0.01 0.01 0.02 0.02 0.01 0.01 0.00
0.00 0.02 0.06 0.10 0.28 0.31 0.20 0.12 0.07 0.05 0.03 0.02 0.02 0.02 0.01 0.00 0.00 0.00 0.00 0.00 0.00 0.00 0.00 0.01 0.02 0.03 0.03 0.03 0.02 0.05 0.10 0.10 0.08 0.10 0.12 0.10 0.12 0.13 0.08 0.04 0.05 0.06 0.03 0.02 0.02 0.02 0.01 0.01 0.01
0.00 0.01 0.02 0.06 0.15 0.21 0.18 0.11 0.08 0.06 0.03 0.03 0.02 0.03 0.05 0.02 0.00 0.00 0.00 0.00 0.00 0.00 0.00 0.01 0.02 0.03 0.02 0.02 0.03 0.04 0.06 0.07 0.06 0.06 0.06 0.06 0.09 0.16 0.12 0.09 0.06 0.06 0.04 0.03 0.02 0.02 0.02 0.01 0.01
0.00 0.00 0.01 0.03 0.07 0.12 0.14 0.10 0.09 0.07 0.03 0.03 0.03 0.04 0.07 0.01 0.00 0.00 0.00 0.00 0.00 0.00 0.00 0.01 0.02 0.02 0.01 0.01 0.02 0.05 0.05 0.03 0.03 0.02 0.02 0.02 0.03 0.05 0.07 0.08 0.08 0.05 0.03 0.03 0.02 0.02 0.02 0.02 0.03
0.00 0.00 0.00 0.01 0.03 0.05 0.08 0.06 0.06 0.05 0.03 0.03 0.03 0.05 0.05 0.03 0.01 0.00 0.00 0.00 0.00 0.00 0.00 0.01 0.01 0.02 0.02 0.01 0.02 0.03 0.03 0.03 0.02 0.02 0.02 0.02 0.03 0.04 0.06 0.07 0.07 0.08 0.06 0.05 0.04 0.03 0.04 0.04 0.03
0.00 0.00 0.00 0.00 0.01 0.02 0.02 0.04 0.04 0.04 0.03 0.04 0.03 0.07 0.09 0.05 0.01 0.01 0.01 0.01 0.02 0.01 0.01 0.01 0.02 0.02 0.03 0.02 0.03 0.03 0.03 0.03 0.03 0.02 0.02 0.02 0.03 0.03 0.06 0.07 0.08 0.11 0.13 0.10 0.08 0.07 0.05 0.06 0.05
0.00 0.00 0.00 0.00 0.00 0.01 0.01 0.02 0.03 0.03 0.04 0.05 0.06 0.12 0.09 0.04 0.02 0.02 0.03 0.03 0.05 0.05 0.04 0.03 0.02 0.03 0.03 0.03 0.03 0.04 0.04 0.04 0.04 0.05 0.05 0.05 0.04 0.07 0.15 0.15 0.20 0.22 0.25 0.26 0.23 0.20 0.18 0.15 0.10
0.00 0.00 0.00 0.00 0.00 0.00 0.00 0.01 0.02 0.03 0.06 0.10 0.12 0.17 0.13 0.08 0.08 0.06 0.07 0.10 0.13 0.14 0.10 0.06 0.04 0.04 0.03 0.03 0.05 0.05 0.05 0.07 0.06 0.09 0.16 0.21 0.24 0.21 0.14 0.23 0.39 0.55 0.70 0.67 0.60 0.60 0.47 0.36 0.27
0.00 0.00 0.00 0.00 0.00 0.00 0.00 0.00 0.01 0.03 0.09 0.20 0.33 0.30 0.20 0.12 0.11 0.15 0.19 0.19 0.22 0.22 0.17 0.12 0.09 0.09 0.10 0.10 0.12 0.12 0.11 0.16 0.16 0.17 0.26 0.32 0.33 0.26 0.20 0.26 0.46 0.65 0.87 0.83 1.00 1.10 0.87 0.82 0.77
0.00 0.00 0.00 0.00 0.00 0.00 0.00 0.00 0.01 0.04 0.11 0.27 0.41 0.36 0.25 0.16 0.12 0.15 0.29 0.37 0.36 0.36 0.29 0.20 0.17 0.18 0.18 0.20 0.21 0.22 0.23 0.24 0.26 0.32 0.39 0.50 0.56 0.49 0.46 0.55 0.64 0.77 0.93 1.18 1.15 1.28 1.22 1.11 1.03
0.00 0.00 0.00 0.00 0.00 0.00 0.00 0.00 0.02 0.03 0.08 0.26 0.36 0.28 0.15 0.18 0.25 0.37 0.55 0.55 0.48 0.45 0.47 0.42 0.37 0.35 0.35 0.37 0.40 0.41 0.40 0.42 0.48 0.57 0.67 0.78 0.88 0.86 0.90 0.86 0.90 0.89 1.11 1.36 1.43 1.38 1.53 1.55 1.41
0.00 0.00 0.00 0.00 0.00 0.00 0.00 0.01 0.02 0.05 0.07 0.19 0.30 0.32 0.24 0.32 0.36 0.45 0.74 0.78 0.65 0.67 0.70 0.72 0.70 0.74 0.77 0.78 0.80 0.79 0.76 0.82 0.91 0.94 0.92 1.01 1.11 1.30 1.40 1.30 1.25 1.15 1.21 1.39 1.54 1.57 1.94 1.85 1.79
0.00 0.00 0.00 0.00 0.00 0.00 0.01 0.02 0.05 0.08 0.08 0.16 0.31 0.38 0.40 0.43 0.46 0.43 0.56 0.85 0.98 0.92 0.92 1.01 1.10 1.23 1.34 1.27 1.21 1.20 1.21 1.20 1.23 1.24 1.28 1.33 1.34 1.54 1.66 1.66 1.54 1.55 1.51 1.61 1.63 1.80 2.02 1.79 1.73
0.00 0.00 0.00 0.00 0.01 0.01 0.01 0.06 0.09 0.10 0.13 0.18 0.32 0.54 0.59 0.55 0.60 0.64 0.70 0.93 1.08 1.09 1.16 1.36 1.49 1.62 1.70 1.65 1.60 1.59 1.49 1.42 1.36 1.42 1.54 1.58 1.64 1.85 1.93 1.75 1.64 1.86 1.91 1.92 1.97 2.03 2.06 1.93 1.87
0.00 0.00 0.00 0.01 0.01 0.01 0.03 0.08 0.14 0.17 0.26 0.33 0.40 0.60 0.75 0.87 1.00 1.13 1.16 1.23 1.36 1.57 1.75 1.92 1.99 2.00 1.98 2.01 2.03 2.07 1.99 1.78 1.63 1.64 1.69 1.75 1.72 1.80 1.93 1.76 1.80 2.03 2.11 2.08 1.91 2.17 2.15 2.08 1.96
0.01 0.01 0.02 0.03 0.03 0.04 0.07 0.11 0.17 0.20 0.29 0.47 0.69 0.84 0.99 1.23 1.54 1.64 1.69 1.77 1.78 1.88 2.14 2.24 2.26 2.48 2.60 2.60 2.47 2.42 2.21 1.98 1.92 1.93 1.97 1.91 1.83 1.87 2.00 1.87 1.95 2.11 2.18 2.10 2.10 2.21 2.24 2.09 2.01
0.03 0.03 0.04 0.06 0.04 0.06 0.14 0.25 0.29 0.32 0.45 0.53 0.71 0.89 1.08 1.14 1.38 1.60 1.67 1.79 1.85 2.11 2.36 2.58 3.04 3.22 3.13 2.91 2.58 2.41 2.30 2.25 2.16 2.02 1.86 1.83 1.84 1.93 2.10 1.98 2.10 2.12 1.98 1.97 2.13 2.25 2.10 1.88 2.02
0.04 0.04 0.04 0.07 0.05 0.06 0.13 0.27 0.35 0.45 0.63 0.71 0.73 0.80 0.90 1.15 1.32 1.49 1.54 1.50 1.73 2.20 2.49 2.54 2.50 2.63 2.69 2.61 2.52 2.50 2.56 2.33 2.12 2.01 1.83 1.70 1.73 1.82 1.85 1.88 1.87 1.90 1.93 1.93 1.98 2.14 1.96 1.64 1.82
0.02 0.03 0.04 0.08 0.08 0.07 0.13 0.32 0.46 0.56 0.66 0.80 0.87 0.89 0.97 1.19 1.36 1.46 1.45 1.38 1.44 1.59 1.79 1.90 1.94 1.86 1.85 1.92 2.08 2.16 2.22 2.03 1.87 1.80 1.74 1.62 1.57 1.53 1.54 1.57 1.71 1.92 2.01 1.92 1.93 1.96 1.84 1.55 1.57
0.04 0.04 0.03 0.03 0.06 0.11 0.19 0.47 0.70 0.65 0.73 0.91 0.92 0.91 1.07 1.30 1.22 1.20 1.25 1.20 1.23 1.32 1.42 1.44 1.47 1.47 1.51 1.61 1.72 1.73 1.72 1.63 1.60 1.62 1.53 1.48 1.43 1.39 1.36 1.39 1.44 1.50 1.59 1.60 1.53 1.65 1.75 1.68 1.51
0.04 0.03 0.03 0.04 0.05 0.08 0.17 0.40 0.73 0.96 0.99 0.91 0.88 0.83 0.98 1.04 0.93 0.87 0.91 0.92 0.95 0.98 1.09 1.18 1.26 1.26 1.27 1.30 1.35 1.39 1.38 1.39 1.41 1.35 1.29 1.23 1.20 1.26 1.26 1.21 1.19 1.16 1.22 1.34 1.37 1.46 1.50 1.54 1.51
0.03 0.04 0.07 0.10 0.11 0.21 0.29 0.40 0.72 1.03 1.18 0.94 0.86 0.80 0.86 0.85 0.82 0.86 0.84 0.79 0.82 0.89 0.99 1.06 1.11 1.13 1.14 1.15 1.17 1.18 1.18 1.19 1.19 1.15 1.16 1.13 1.08 1.02 1.01 1.04 1.06 1.04 1.09 1.18 1.26 1.32 1.28 1.36 1.40
0.04 0.06 0.22 0.39 0.48 0.57 0.43 0.53 0.87 0.92 0.92 0.85 0.81 0.84 0.85 0.77 0.72 0.69 0.70 0.71 0.77 0.79 0.80 0.81 0.83 0.88 0.84 0.83 0.88 0.90 0.90 0.90 0.91 0.91 0.88 0.83 0.75 0.73 0.76 0.77 0.85 0.90 0.99 1.02 1.03 1.11 1.20 1.33 1.39
0.07 0.10 0.33 0.42 0.33 0.43 0.45 0.71 1.09 0.89 0.83 0.75 0.77 0.86 0.80 0.64 0.56 0.55 0.54 0.54 0.58 0.58 0.55 0.56 0.60 0.68 0.71 0.70 0.70 0.62 0.58 0.57 0.57 0.65 0.65 0.61 0.57 0.55 0.61 0.70 0.82 0.90 0.95 0.95 0.98 0.98 1.04 1.18 1.31
0.11 0.14 0.18 0.33 0.28 0.33 0.43 0.71 0.92 0.79 0.77 0.80 0.89 0.92 0.83 0.62 0.48 0.43 0.40 0.39 0.37 0.36 0.40 0.46 0.52 0.56 0.61 0.60 0.56 0.51 0.46 0.43 0.43 0.47 0.53 0.53 0.58 0.53 0.57 0.65 0.76 0.89 1.00 1.03 1.01 1.02 1.11 1.25 1.33
0.10 0.11 0.13 0.26 0.31 0.33 0.34 0.67 0.88 0.98 0.96 0.88 0.91 0.80 0.58 0.44 0.34 0.29 0.25 0.24 0.24 0.25 0.30 0.38 0.42 0.42 0.43 0.44 0.43 0.38 0.36 0.37 0.39 0.40 0.42 0.44 0.47 0.49 0.54 0.62 0.69 0.71 0.77 0.83 0.83 0.92 1.04 1.18 1.24
0.11 0.14 0.21 0.30 0.30 0.37 0.42 0.56 0.58 0.67 0.79 0.85 0.79 0.61 0.40 0.29 0.21 0.20 0.20 0.20 0.21 0.21 0.25 0.32 0.39 0.42 0.43 0.42 0.41 0.35 0.30 0.29 0.30 0.31 0.33 0.38 0.41 0.44 0.48 0.54 0.54 0.55 0.55 0.58 0.63 0.74 0.88 0.95 0.96
0.08 0.12 0.21 0.32 0.29 0.31 0.38 0.45 0.29 0.31 0.42 0.45 0.42 0.34 0.27 0.21 0.19 0.21 0.23 0.23 0.21 0.23 0.27 0.34 0.39 0.44 0.48 0.49 0.50 0.46 0.40 0.36 0.34 0.32 0.30 0.31 0.34 0.38 0.41 0.43 0.45 0.44 0.46 0.53 0.59 0.66 0.74 0.81 0.80

GEFSSGP_prec_meanprecacc_096.txt.gz
Total_Precipitation_Accumulation
0.01 0.07 0.17 0.19 0.21 0.46 0.56 0.41 0.15 0.04 0.02 0.02 0.02 0.02 0.02 0.02 0.04 0.09 0.01 0.00 0.00 0.00 0.00 0.01 0.01 0.02 0.03 0.06 0.06 0.07 0.06 0.03 0.02 0.02 0.04 0.07 0.03 0.01 0.01 0.01 0.01 0.01 0.01 0.02 0.02 0.03 0.02 0.02 0.01
0.01 0.07 0.16 0.17 0.31 0.61 0.54 0.39 0.13 0.05 0.03 0.02 0.02 0.01 0.01 0.00 0.00 0.00 0.00 0.00 0.00 0.00 0.00 0.01 0.01 0.01 0.02 0.03 0.05 0.08 0.07 0.04 0.03 0.05 0.07 0.08 0.05 0.02 0.01 0.01 0.02 0.01 0.01 0.01 0.02 0.02 0.01 0.01 0.01
0.01 0.04 0.13 0.15 0.42 0.52 0.40 0.24 0.07 0.05 0.03 0.02 0.02 0.01 0.00 0.00 0.00 0.00 0.00 0.00 0.00 0.00 0.00 0.01 0.02 0.02 0.02 0.02 0.04 0.08 0.10 0.08 0.06 0.09 0.10 0.09 0.07 0.05 0.04 0.03 0.04 0.03 0.02 0.01 0.02 0.02 0.02 0.01 0.01
0.00 0.02 0.06 0.10 0.28 0.31 0.20 0.12 0.07 0.05 0.03 0.02 0.02 0.02 0.01 0.00 0.00 0.00 0.00 0.00 0.00 0.00 0.00 0.01 0.03 0.03 0.03 0.03 0.02 0.05 0.10 0.10 0.08 0.10 0.13 0.11 0.12 0.13 0.09 0.05 0.06 0.06 0.04 0.03 0.03 0.02 0.01 0.01 0.01
0.00 0.01 0.02 0.06 0.15 0.21 0.18 0.12 0.08 0.06 0.04 0.03 0.03 0.03 0.06 0.02 0.00 0.00 0.00 0.00 0.00 0.00 0.00 0.01 0.03 0.03 0.02 0.02 0.04 0.04 0.06 0.07 0.06 0.06 0.06 0.06 0.09 0.16 0.13 0.09 0.07 0.07 0.05 0.04 0.03 0.03 0.02 0.02 0.02
0.00 0.00 0.01 0.03 0.07 0.12 0.14 0.10 0.09 0.08 0.03 0.04 0.03 0.04 0.07 0.02 0.00 0.00 0.00 0.00 0.00 0.00 0.00 0.02 0.04 0.04 0.02 0.02 0.03 0.05 0.05 0.04 0.03 0.03 0.02 0.03 0.04 0.05 0.08 0.09 0.08 0.07 0.04 0.03 0.03 0.03 0.03 0.03 0.03
0.00 0.00 0.00 0.01 0.03 0.06 0.08 0.06 0.06 0.05 0.04 0.04 0.03 0.05 0.05 0.03 0.01 0.01 0.01 0.01 0.01 0.00 0.01 0.03 0.04 0.04 0.04 0.03 0.04 0.04 0.05 0.05 0.04 0.03 0.03 0.04 0.04 0.05 0.07 0.08 0.09 0.09 0.08 0.07 0.05 0.05 0.05 0.05 0.04
0.00 0.00 0.00 0.00 0.01 0.02 0.02 0.04 0.04 0.04 0.04 0.05 0.04 0.08 0.10 0.05 0.02 0.01 0.01 0.02 0.02 0.02 0.02 0.04 0.06 0.07 0.07 0.06 0.06 0.06 0.06 0.06 0.05 0.05 0.05 0.05 0.05 0.05 0.08 0.10 0.11 0.14 0.16 0.13 0.11 0.09 0.07 0.08 0.06
0.00 0.00 0.00 0.00 0.00 0.01 0.01 0.02 0.03 0.03 0.04 0.05 0.07 0.13 0.10 0.05 0.03 0.02 0.03 0.04 0.06 0.07 0.07 0.06 0.06 0.08 0.08 0.06 0.06 0.07 0.08 0.07 0.07 0.08 0.09 0.10 0.09 0.12 0.19 0.19 0.25 0.27 0.31 0.31 0.28 0.25 0.21 0.19 0.12
0.00 0.00 0.00 0.00 0.00 0.00 0.00 0.01 0.02 0.03 0.07 0.11 0.13 0.17 0.14 0.09 0.11 0.08 0.07 0.11 0.15 0.17 0.12 0.10 0.07 0.08 0.08 0.07 0.10 0.13 0.13 0.15 0.14 0.17 0.25 0.30 0.34 0.30 0.20 0.29 0.45 0.61 0.79 0.76 0.68 0.68 0.54 0.42 0.33
0.00 0.00 0.00 0.00 0.00 0.00 0.00 0.00 0.01 0.03 0.09 0.21 0.34 0.30 0.22 0.18 0.16 0.18 0.23 0.21 0.24 0.24 0.18 0.14 0.12 0.13 0.14 0.16 0.20 0.25 0.24 0.28 0.28 0.30 0.40 0.45 0.46 0.39 0.30 0.36 0.54 0.73 0.96 0.93 1.12 1.23 0.98 0.92 0.88
0.00 0.00 0.00 0.00 0.00 0.00 0.00 0.00 0.01 0.04 0.12 0.28 0.42 0.36 0.27 0.18 0.15 0.18 0.32 0.41 0.41 0.40 0.32 0.22 0.21 0.23 0.24 0.27 0.30 0.31 0.35 0.38 0.40 0.47 0.51 0.64 0.72 0.64 0.60 0.69 0.77 0.89 1.04 1.29 1.29 1.44 1.39 1.27 1.17
0.00 0.00 0.00 0.00 0.00 0.00 0.00 0.01 0.02 0.04 0.09 0.26 0.37 0.29 0.16 0.20 0.28 0.42 0.59 0.61 0.55 0.53 0.53 0.48 0.42 0.42 0.43 0.46 0.51 0.54 0.54 0.57 0.63 0.73 0.81 0.90 1.02 1.01 1.06 1.03 1.07 1.04 1.25 1.50 1.58 1.54 1.70 1.72 1.58
0.00 0.00 0.00 0.00 0.00 0.00 0.01 0.01 0.03 0.06 0.08 0.20 0.31 0.34 0.27 0.34 0.40 0.49 0.79 0.85 0.71 0.75 0.79 0.82 0.79 0.82 0.86 0.89 0.95 0.97 0.93 1.01 1.08 1.11 1.10 1.21 1.30 1.50 1.57 1.45 1.39 1.30 1.36 1.54 1.69 1.74 2.13 2.02 1.94
0.00 0.00 0.00 0.00 0.00 0.01 0.01 0.04 0.07 0.09 0.10 0.18 0.32 0.41 0.44 0.47 0.50 0.47 0.59 0.89 1.03 0.99 1.00 1.10 1.19 1.34 1.47 1.44 1.38 1.38 1.39 1.39 1.42 1.46 1.53 1.58 1.58 1.77 1.83 1.80 1.67 1.67 1.65 1.74 1.74 1.92 2.19 1.96 1.87
0.00 0.00 0.00 0.00 0.01 0.01 0.02 0.09 0.11 0.12 0.15 0.21 0.35 0.57 0.63 0.59 0.63 0.69 0.74 0.97 1.12 1.15 1.25 1.46 1.57 1.71 1.83 1.81 1.76 1.79 1.71 1.60 1.52 1.57 1.68 1.70 1.74 1.96 2.04 1.84 1.73 1.98 2.02 2.03 2.06 2.12 2.15 2.05 2.00
0.00 0.00 0.00 0.01 0.01 0.02 0.04 0.12 0.17 0.21 0.30 0.37 0.44 0.64 0.79 0.90 1.03 1.16 1.19 1.27 1.41 1.65 1.88 2.04 2.08 2.09 2.08 2.12 2.17 2.22 2.14 1.92 1.75 1.75 1.79 1.84 1.79 1.87 2.00 1.81 1.86 2.10 2.17 2.14 1.97 2.24 2.21 2.14 2.03
0.01 0.01 0.02 0.04 0.03 0.04 0.08 0.15 0.21 0.25 0.33 0.51 0.75 0.89 1.04 1.28 1.58 1.67 1.73 1.81 1.82 1.95 2.23 2.32 2.32 2.55 2.68 2.67 2.52 2.50 2.31 2.08 2.02 2.02 2.04 1.97 1.88 1.91 2.05 1.91 1.99 2.15 2.22 2.14 2.15 2.25 2.28 2.13 2.06
0.03 0.03 0.04 0.06 0.04 0.07 0.16 0.27 0.32 0.36 0.48 0.58 0.76 0.96 1.13 1.18 1.42 1.65 1.71 1.83 1.89 2.15 2.39 2.62 3.08 3.26 3.16 2.93 2.62 2.45 2.35 2.30 2.19 2.04 1.88 1.85 1.87 1.97 2.14 2.03 2.15 2.17 2.02 2.01 2.17 2.29 2.14 1.93 2.08
0.04 0.04 0.05 0.08 0.06 0.07 0.15 0.30 0.38 0.49 0.68 0.75 0.77 0.85 0.95 1.20 1.36 1.51 1.56 1.53 1.76 2.22 2.51 2.56 2.52 2.65 2.70 2.63 2.55 2.52 2.57 2.34 2.13 2.01 1.83 1.70 1.74 1.83 1.87 1.90 1.89 1.93 1.97 1.96 2.02 2.18 1.99 1.68 1.87
0.02 0.03 0.05 0.10 0.09 0.08 0.14 0.35 0.48 0.58 0.70 0.83 0.91 0.94 1.03 1.23 1.40 1.49 1.47 1.40 1.45 1.60 1.80 1.91 1.95 1.88 1.87 1.94 2.09 2.17 2.23 2.04 1.88 1.81 1.75 1.62 1.58 1.53 1.55 1.58 1.71 1.93 2.02 1.95 1.98 2.01 1.88 1.58 1.60
0.04 0.05 0.03 0.04 0.07 0.13 0.20 0.51 0.73 0.68 0.76 0.94 0.95 0.94 1.11 1.33 1.25 1.23 1.27 1.21 1.23 1.33 1.43 1.45 1.48 1.49 1.53 1.63 1.73 1.74 1.73 1.64 1.61 1.62 1.54 1.48 1.43 1.40 1.37 1.39 1.44 1.51 1.60 1.62 1.56 1.68 1.78 1.72 1.54
0.04 0.03 0.04 0.04 0.06 0.10 0.18 0.41 0.75 0.98 1.02 0.93 0.90 0.84 0.99 1.06 0.94 0.88 0.92 0.92 0.95 0.98 1.09 1.19 1.27 1.27 1.28 1.32 1.37 1.41 1.39 1.40 1.42 1.36 1.30 1.24 1.21 1.27 1.26 1.21 1.20 1.17 1.23 1.35 1.38 1.48 1.53 1.57 1.54
0.03 0.04 0.07 0.10 0.12 0.23 0.30 0.41 0.73 1.04 1.20 0.95 0.87 0.82 0.87 0.86 0.82 0.86 0.84 0.79 0.82 0.89 0.99 1.06 1.12 1.14 1.15 1.16 1.18 1.19 1.19 1.20 1.19 1.15 1.16 1.13 1.09 1.03 1.01 1.05 1.06 1.05 1.10 1.19 1.27 1.34 1.30 1.38 1.44
0.04 0.07 0.24 0.40 0.50 0.59 0.44 0.53 0.87 0.92 0.92 0.85 0.81 0.84 0.85 0.77 0.72 0.69 0.70 0.72 0.77 0.79 0.80 0.81 0.84 0.89 0.85 0.84 0.89 0.91 0.91 0.90 0.91 0.91 0.89 0.83 0.75 0.74 0.76 0.77 0.86 0.90 0.99 1.03 1.03 1.11 1.21 1.34 1.41
0.07 0.11 0.34 0.43 0.34 0.44 0.45 0.71 1.09 0.89 0.83 0.75 0.77 0.86 0.80 0.64 0.56 0.55 0.54 0.54 0.58 0.58 0.55 0.56 0.60 0.68 0.72 0.70 0.70 0.62 0.58 0.57 0.57 0.65 0.66 0.61 0.57 0.56 0.61 0.70 0.82 0.91 0.95 0.96 0.98 0.98 1.05 1.19 1.32
0.11 0.14 0.19 0.33 0.28 0.33 0.43 0.71 0.92 0.79 0.77 0.80 0.89 0.92 0.83 0.62 0.48 0.43 0.40 0.39 0.37 0.36 0.40 0.46 0.52 0.57 0.62 0.61 0.56 0.51 0.46 0.43 0.43 0.47 0.53 0.54 0.58 0.54 0.57 0.65 0.76 0.89 1.00 1.03 1.01 1.02 1.11 1.25 1.33
0.11 0.11 0.13 0.27 0.32 0.33 0.35 0.67 0.88 0.98 0.96 0.88 0.91 0.80 0.58 0.44 0.34 0.29 0.25 0.24 0.24 0.25 0.30 0.38 0.42 0.42 0.44 0.44 0.43 0.38 0.36 0.37 0.39 0.40 0.42 0.44 0.47 0.49 0.54 0.62 0.69 0.72 0.78 0.84 0.84 0.93 1.05 1.19 1.26
0.11 0.15 0.22 0.30 0.30 0.37 0.42 0.56 0.58 0.67 0.79 0.85 0.79 0.61 0.40 0.29 0.21 0.20 0.20 0.20 0.21 0.21 0.25 0.32 0.39 0.42 0.43 0.42 0.41 0.35 0.30 0.29 0.30 0.31 0.33 0.38 0.41 0.44 0.48 0.54 0.54 0.55 0.56 0.58 0.63 0.75 0.89 0.96 0.97
0.08 0.12 0.21 0.33 0.29 0.31 0.38 0.45 0.29 0.31 0.42 0.45 0.42 0.34 0.27 0.21 0.19 0.21 0.23 0.23 0.21 0.23 0.27 0.34 0.39 0.44 0.48 0.49 0.50 0.46 0.40 0.36 0.34 0.32 0.30 0.31 0.34 0.38 0.41 0.43 0.45 0.44 0.46 0.53 0.59 0.67 0.74 0.82 0.81

GEFSSGP_prec_meanprecacc_102.txt.gz
Total_Precipitation_Accumulation
0.01 0.07 0.17 0.19 0.23 0.58 0.68 0.46 0.16 0.05 0.02 0.02 0.02 0.02 0.02 0.03 0.08 0.17 0.03 0.00 0.00 0.00 0.00 0.01 0.01 0.02 0.03 0.06 0.07 0.08 0.07 0.04 0.03 0.03 0.05 0.07 0.04 0.01 0.01 0.01 0.01 0.01 0.02 0.02 0.03 0.04 0.03 0.02 0.02
0.01 0.07 0.16 0.17 0.36 0.83 0.72 0.48 0.15 0.05 0.03 0.02 0.02 0.02 0.03 0.01 0.00 0.00 0.00 0.00 0.00 0.00 0.00 0.01 0.01 0.01 0.02 0.04 0.06 0.08 0.09 0.06 0.05 0.07 0.08 0.09 0.06 0.02 0.02 0.02 0.02 0.02 0.02 0.02 0.02 0.03 0.02 0.01 0.01
0.01 0.04 0.13 0.15 0.44 0.59 0.48 0.30 0.08 0.06 0.03 0.02 0.02 0.03 0.03 0.01 0.00 0.00 0.00 0.00 0.00 0.00 0.00 0.01 0.02 0.02 0.02 0.02 0.04 0.08 0.11 0.09 0.08 0.11 0.12 0.09 0.08 0.05 0.04 0.04 0.05 0.04 0.02 0.02 0.02 0.03 0.02 0.01 0.01
0.00 0.02 0.06 0.10 0.30 0.34 0.22 0.14 0.08 0.06 0.04 0.03 0.03 0.04 0.05 0.01 0.00 0.00 0.00 0.00 0.00 0.00 0.00 0.01 0.03 0.03 0.03 0.03 0.03 0.06 0.11 0.11 0.09 0.11 0.14 0.12 0.13 0.14 0.09 0.05 0.06 0.07 0.04 0.03 0.03 0.03 0.02 0.01 0.01
0.00 0.01 0.02 0.07 0.16 0.22 0.19 0.13 0.09 0.07 0.04 0.05 0.05 0.07 0.15 0.04 0.00 0.00 0.00 0.00 0.00 0.01 0.00 0.01 0.03 0.04 0.03 0.03 0.04 0.05 0.07 0.08 0.07 0.07 0.07 0.07 0.10 0.17 0.13 0.10 0.08 0.07 0.06 0.04 0.04 0.03 0.03 0.02 0.02
0.00 0.00 0.01 0.04 0.08 0.14 0.16 0.10 0.09 0.08 0.05 0.09 0.07 0.11 0.18 0.05 0.01 0.00 0.00 0.00 0.01 0.01 0.01 0.02 0.04 0.04 0.03 0.03 0.04 0.06 0.06 0.05 0.04 0.04 0.03 0.03 0.04 0.06 0.09 0.10 0.09 0.08 0.05 0.04 0.04 0.04 0.04 0.04 0.03
0.00 0.00 0.00 0.01 0.04 0.07 0.09 0.06 0.06 0.08 0.10 0.10 0.10 0.23 0.25 0.09 0.02 0.01 0.01 0.01 0.01 0.02 0.02 0.04 0.05 0.06 0.06 0.06 0.06 0.06 0.07 0.07 0.05 0.05 0.05 0.05 0.04 0.06 0.08 0.09 0.10 0.11 0.10 0.08 0.05 0.05 0.06 0.06 0.05
0.00 0.00 0.00 0.00 0.01 0.03 0.03 0.04 0.04 0.07 0.16 0.15 0.14 0.22 0.33 0.15 0.03 0.01 0.01 0.02 0.03 0.03 0.04 0.07 0.11 0.14 0.13 0.10 0.08 0.08 0.09 0.08 0.07 0.07 0.07 0.06 0.06 0.07 0.10 0.11 0.12 0.15 0.17 0.15 0.12 0.10 0.08 0.09 0.07
0.00 0.00 0.00 0.00 0.00 0.01 0.01 0.03 0.05 0.04 0.07 0.09 0.11 0.20 0.22 0.10 0.04 0.03 0.04 0.04 0.07 0.08 0.10 0.10 0.12 0.17 0.20 0.17 0.15 0.13 0.13 0.11 0.10 0.12 0.12 0.12 0.12 0.18 0.28 0.24 0.28 0.29 0.33 0.33 0.30 0.28 0.24 0.21 0.14
0.00 0.00 0.00 0.00 0.00 0.00 0.01 0.02 0.05 0.04 0.10 0.16 0.18 0.21 0.19 0.12 0.12 0.09 0.09 0.12 0.16 0.19 0.16 0.15 0.15 0.15 0.16 0.24 0.36 0.29 0.23 0.25 0.21 0.29 0.36 0.39 0.45 0.42 0.33 0.41 0.54 0.67 0.83 0.79 0.72 0.73 0.57 0.45 0.38
0.00 0.00 0.00 0.00 0.00 0.00 0.02 0.02 0.04 0.04 0.21 0.44 0.49 0.38 0.26 0.22 0.19 0.20 0.25 0.23 0.25 0.26 0.21 0.19 0.19 0.21 0.24 0.26 0.34 0.40 0.39 0.46 0.42 0.44 0.56 0.62 0.62 0.54 0.45 0.54 0.70 0.85 1.05 1.01 1.22 1.31 1.04 1.01 0.99
0.00 0.00 0.00 0.00 0.00 0.00 0.01 0.02 0.03 0.07 0.27 0.48 0.64 0.50 0.40 0.28 0.20 0.21 0.36 0.44 0.43 0.44 0.36 0.30 0.30 0.33 0.37 0.41 0.46 0.46 0.50 0.55 0.55 0.61 0.63 0.79 0.89 0.82 0.79 0.88 0.96 1.07 1.20 1.45 1.43 1.58 1.52 1.38 1.29
0.00 0.00 0.00 0.00 0.00 0.00 0.00 0.03 0.06 0.08 0.14 0.33 0.48 0.38 0.30 0.32 0.39 0.53 0.69 0.69 0.62 0.59 0.61 0.57 0.50 0.50 0.52 0.56 0.63 0.66 0.68 0.71 0.78 0.89 0.96 1.08 1.26 1.23 1.26 1.23 1.27 1.22 1.42 1.69 1.77 1.71 1.87 1.89 1.72
0.00 0.00 0.00 0.00 0.00 0.01 0.01 0.04 0.06 0.13 0.15 0.24 0.36 0.40 0.35 0.46 0.54 0.66 0.97 0.98 0.80 0.83 0.91 0.89 0.87 0.90 0.95 0.98 1.05 1.07 1.04 1.15 1.23 1.25 1.26 1.38 1.52 1.72 1.76 1.62 1.56 1.47 1.51 1.70 1.85 1.90 2.30 2.18 2.10
0.00 0.00 0.00 0.01 0.01 0.03 0.04 0.15 0.19 0.17 0.17 0.22 0.37 0.49 0.59 0.63 0.64 0.62 0.69 0.97 1.11 1.09 1.11 1.17 1.25 1.40 1.55 1.52 1.46 1.46 1.47 1.50 1.54 1.56 1.64 1.68 1.70 1.91 1.98 1.94 1.80 1.78 1.76 1.86 1.88 2.07 2.33 2.08 1.98
0.00 0.00 0.01 0.03 0.02 0.04 0.08 0.29 0.23 0.17 0.20 0.29 0.45 0.69 0.80 0.75 0.74 0.76 0.82 1.05 1.22 1.26 1.34 1.52 1.64 1.78 1.91 1.90 1.85 1.85 1.79 1.68 1.58 1.61 1.74 1.76 1.82 2.03 2.11 1.92 1.82 2.07 2.11 2.13 2.17 2.24 2.28 2.18 2.12
0.01 0.01 0.03 0.04 0.04 0.04 0.07 0.20 0.30 0.29 0.38 0.45 0.58 0.76 0.92 1.06 1.15 1.24 1.27 1.34 1.54 1.77 1.97 2.14 2.17 2.16 2.13 2.17 2.21 2.27 2.19 1.96 1.79 1.78 1.82 1.87 1.82 1.90 2.03 1.86 1.92 2.16 2.23 2.20 2.04 2.33 2.30 2.25 2.15
0.02 0.02 0.06 0.08 0.07 0.06 0.12 0.23 0.29 0.31 0.39 0.58 0.85 0.97 1.13 1.39 1.68 1.75 1.79 1.90 1.94 2.05 2.31 2.39 2.39 2.60 2.74 2.72 2.56 2.54 2.35 2.11 2.05 2.05 2.06 2.00 1.91 1.93 2.06 1.94 2.02 2.19 2.26 2.19 2.20 2.31 2.33 2.19 2.13
0.03 0.04 0.08 0.11 0.08 0.10 0.24 0.38 0.37 0.40 0.52 0.63 0.85 1.04 1.22 1.32 1.56 1.74 1.78 1.93 2.00 2.26 2.48 2.68 3.14 3.31 3.21 2.98 2.66 2.49 2.38 2.33 2.22 2.07 1.90 1.86 1.88 1.98 2.16 2.05 2.17 2.19 2.05 2.05 2.21 2.34 2.19 1.98 2.15
0.04 0.07 0.10 0.11 0.08 0.08 0.20 0.36 0.41 0.54 0.74 0.79 0.83 0.92 1.04 1.30 1.52 1.62 1.64 1.59 1.85 2.31 2.58 2.62 2.57 2.69 2.74 2.67 2.58 2.55 2.60 2.36 2.15 2.03 1.85 1.72 1.76 1.85 1.88 1.92 1.91 1.95 1.99 1.99 2.06 2.23 2.05 1.74 1.95
0.03 0.05 0.08 0.11 0.10 0.09 0.18 0.42 0.55 0.68 0.76 0.86 0.94 0.97 1.09 1.30 1.47 1.57 1.56 1.48 1.54 1.68 1.85 1.95 1.98 1.90 1.89 1.96 2.11 2.19 2.25 2.06 1.89 1.82 1.76 1.64 1.59 1.54 1.56 1.59 1.72 1.94 2.04 1.97 2.01 2.04 1.92 1.63 1.65
0.05 0.05 0.04 0.04 0.09 0.16 0.25 0.66 0.84 0.76 0.81 0.97 0.97 0.97 1.14 1.39 1.31 1.29 1.33 1.27 1.28 1.36 1.45 1.47 1.51 1.51 1.54 1.64 1.74 1.75 1.75 1.65 1.62 1.63 1.55 1.50 1.44 1.40 1.37 1.40 1.45 1.53 1.61 1.64 1.57 1.70 1.81 1.76 1.58
0.04 0.03 0.04 0.05 0.11 0.17 0.24 0.52 0.83 1.04 1.09 0.97 0.91 0.86 1.02 1.10 0.97 0.91 0.96 0.96 0.98 0.99 1.10 1.19 1.29 1.30 1.30 1.33 1.38 1.42 1.40 1.41 1.43 1.37 1.30 1.24 1.21 1.27 1.27 1.22 1.20 1.17 1.23 1.36 1.39 1.50 1.54 1.59 1.57
0.03 0.04 0.09 0.16 0.26 0.43 0.38 0.48 0.81 1.08 1.22 0.98 0.88 0.83 0.89 0.87 0.83 0.88 0.87 0.81 0.83 0.90 0.99 1.07 1.15 1.17 1.18 1.18 1.19 1.20 1.20 1.20 1.19 1.16 1.17 1.13 1.09 1.03 1.02 1.05 1.07 1.05 1.10 1.20 1.29 1.36 1.32 1.41 1.47
0.04 0.10 0.35 0.59 0.75 0.75 0.51 0.56 0.90 0.93 0.92 0.85 0.81 0.86 0.88 0.80 0.72 0.70 0.70 0.72 0.78 0.80 0.80 0.82 0.86 0.92 0.87 0.86 0.91 0.92 0.92 0.91 0.92 0.92 0.89 0.83 0.75 0.74 0.77 0.77 0.86 0.91 1.00 1.04 1.04 1.13 1.23 1.36 1.44
0.07 0.12 0.40 0.52 0.45 0.53 0.49 0.74 1.12 0.90 0.83 0.75 0.77 0.86 0.81 0.66 0.57 0.55 0.54 0.55 0.58 0.58 0.55 0.56 0.62 0.70 0.74 0.72 0.72 0.63 0.59 0.58 0.57 0.66 0.66 0.61 0.57 0.56 0.61 0.70 0.83 0.92 0.96 0.96 0.99 0.99 1.06 1.21 1.34
0.12 0.14 0.19 0.34 0.30 0.36 0.47 0.74 0.95 0.81 0.77 0.80 0.89 0.92 0.83 0.63 0.49 0.43 0.40 0.39 0.38 0.37 0.40 0.46 0.52 0.58 0.63 0.61 0.57 0.51 0.46 0.43 0.43 0.47 0.53 0.54 0.58 0.54 0.57 0.66 0.77 0.90 1.01 1.04 1.03 1.03 1.13 1.27 1.35
0.11 0.11 0.13 0.28 0.33 0.37 0.40 0.71 0.91 0.99 0.96 0.88 0.91 0.80 0.58 0.44 0.34 0.29 0.25 0.24 0.24 0.26 0.30 0.38 0.42 0.42 0.44 0.44 0.43 0.38 0.36 0.37 0.39 0.40 0.42 0.44 0.47 0.50 0.55 0.62 0.69 0.72 0.79 0.85 0.86 0.94 1.06 1.22 1.28
0.11 0.15 0.22 0.31 0.30 0.40 0.49 0.63 0.62 0.68 0.79 0.85 0.79 0.61 0.40 0.29 0.21 0.20 0.20 0.20 0.21 0.21 0.25 0.32 0.39 0.42 0.43 0.42 0.41 0.35 0.30 0.29 0.30 0.31 0.33 0.39 0.41 0.44 0.49 0.54 0.55 0.56 0.56 0.59 0.65 0.76 0.90 0.98 0.99
0.09 0.12 0.21 0.33 0.30 0.31 0.41 0.48 0.31 0.32 0.42 0.45 0.42 0.34 0.27 0.21 0.19 0.21 0.23 0.23 0.21 0.23 0.27 0.34 0.39 0.44 0.48 0.49 0.50 0.46 0.40 0.36 0.34 0.32 0.30 0.31 0.35 0.38 0.42 0.44 0.45 0.45 0.47 0.54 0.60 0.68 0.75 0.83 0.83

GEFSSGP_prec_meanprecacc_108.txt.gz
Total_Precipitation_Accumulation
0.01 0.08 0.19 0.23 0.29 0.72 0.87 0.64 0.30 0.17 0.12 0.12 0.13 0.10 0.09 0.08 0.13 0.24 0.10 0.03 0.01 0.00 0.00 0.01 0.01 0.02 0.04 0.06 0.07 0.08 0.08 0.05 0.04 0.04 0.05 0.08 0.04 0.02 0.02 0.01 0.02 0.02 0.02 0.03 0.04 0.04 0.03 0.03 0.03
0.01 0.08 0.19 0.21 0.49 1.04 0.94 0.61 0.25 0.15 0.11 0.14 0.17 0.11 0.15 0.11 0.06 0.06 0.06 0.02 0.01 0.00 0.00 0.01 0.01 0.02 0.02 0.04 0.06 0.09 0.09 0.06 0.06 0.08 0.09 0.09 0.06 0.03 0.02 0.02 0.02 0.02 0.02 0.02 0.03 0.03 0.02 0.02 0.01
0.01 0.06 0.16 0.21 0.58 0.78 0.65 0.40 0.15 0.11 0.09 0.11 0.16 0.14 0.15 0.17 0.14 0.09 0.04 0.02 0.01 0.01 0.00 0.01 0.02 0.02 0.02 0.03 0.04 0.09 0.12 0.10 0.09 0.12 0.12 0.10 0.08 0.06 0.04 0.04 0.05 0.04 0.03 0.02 0.03 0.03 0.02 0.01 0.01
0.01 0.03 0.09 0.17 0.39 0.46 0.31 0.21 0.13 0.11 0.09 0.12 0.19 0.23 0.30 0.22 0.18 0.12 0.05 0.02 0.01 0.01 0.00 0.01 0.03 0.04 0.03 0.03 0.03 0.06 0.12 0.12 0.11 0.13 0.15 0.13 0.14 0.15 0.09 0.06 0.07 0.07 0.05 0.04 0.04 0.03 0.02 0.01 0.01
0.00 0.01 0.05 0.12 0.21 0.28 0.23 0.17 0.13 0.11 0.09 0.14 0.24 0.42 0.56 0.36 0.18 0.10 0.06 0.02 0.02 0.03 0.01 0.01 0.04 0.04 0.03 0.03 0.04 0.05 0.07 0.09 0.08 0.09 0.08 0.08 0.10 0.17 0.14 0.10 0.08 0.08 0.06 0.04 0.04 0.03 0.03 0.02 0.02
0.00 0.01 0.02 0.05 0.11 0.16 0.18 0.12 0.10 0.10 0.09 0.19 0.36 0.52 0.50 0.31 0.19 0.13 0.08 0.04 0.03 0.07 0.08 0.03 0.04 0.04 0.03 0.03 0.04 0.06 0.07 0.06 0.05 0.05 0.04 0.04 0.05 0.06 0.09 0.10 0.10 0.08 0.06 0.04 0.04 0.05 0.04 0.04 0.04
0.00 0.00 0.00 0.02 0.04 0.08 0.10 0.07 0.07 0.09 0.15 0.23 0.36 0.60 0.60 0.49 0.39 0.23 0.16 0.10 0.08 0.07 0.13 0.06 0.06 0.06 0.06 0.06 0.06 0.06 0.07 0.07 0.06 0.06 0.05 0.05 0.05 0.06 0.09 0.10 0.11 0.11 0.11 0.08 0.05 0.06 0.06 0.06 0.05
0.00 0.00 0.00 0.00 0.01 0.03 0.03 0.04 0.05 0.08 0.19 0.26 0.33 0.57 0.67 0.50 0.43 0.34 0.29 0.19 0.12 0.08 0.12 0.09 0.11 0.14 0.13 0.10 0.08 0.09 0.10 0.09 0.09 0.08 0.08 0.07 0.07 0.08 0.12 0.13 0.13 0.16 0.18 0.16 0.13 0.11 0.09 0.09 0.07
0.00 0.00 0.00 0.00 0.00 0.01 0.01 0.03 0.06 0.06 0.10 0.22 0.28 0.46 0.49 0.38 0.37 0.33 0.30 0.25 0.19 0.15 0.15 0.13 0.13 0.18 0.21 0.18 0.17 0.16 0.16 0.13 0.12 0.14 0.15 0.14 0.14 0.22 0.33 0.28 0.33 0.34 0.36 0.35 0.32 0.30 0.26 0.22 0.15
0.00 0.00 0.00 0.00 0.00 0.00 0.01 0.02 0.07 0.07 0.18 0.38 0.44 0.46 0.39 0.35 0.38 0.46 0.47 0.38 0.32 0.29 0.23 0.20 0.20 0.19 0.20 0.28 0.44 0.36 0.31 0.31 0.25 0.32 0.39 0.43 0.48 0.47 0.40 0.48 0.63 0.76 0.90 0.84 0.77 0.77 0.60 0.48 0.39
0.00 0.00 0.00 0.00 0.00 0.01 0.04 0.02 0.04 0.06 0.26 0.65 0.78 0.67 0.58 0.47 0.49 0.60 0.71 0.59 0.45 0.38 0.32 0.29 0.33 0.32 0.28 0.30 0.39 0.47 0.46 0.52 0.48 0.50 0.62 0.69 0.69 0.64 0.58 0.65 0.82 0.96 1.13 1.08 1.30 1.39 1.09 1.05 1.03
0.00 0.00 0.00 0.00 0.00 0.02 0.04 0.03 0.06 0.10 0.32 0.59 0.85 0.75 0.74 0.63 0.59 0.68 0.85 0.85 0.75 0.68 0.53 0.49 0.58 0.49 0.44 0.46 0.52 0.52 0.55 0.61 0.61 0.68 0.73 0.89 0.97 0.92 0.91 0.98 1.04 1.15 1.29 1.55 1.53 1.67 1.59 1.45 1.37
0.00 0.00 0.00 0.00 0.00 0.02 0.04 0.09 0.09 0.14 0.23 0.44 0.65 0.61 0.52 0.64 0.83 1.00 1.23 1.14 1.01 1.04 0.97 0.85 0.75 0.72 0.63 0.64 0.70 0.72 0.76 0.79 0.91 1.03 1.07 1.18 1.34 1.31 1.32 1.28 1.33 1.30 1.51 1.78 1.85 1.81 1.97 1.98 1.80
0.00 0.00 0.00 0.00 0.01 0.02 0.04 0.11 0.16 0.25 0.30 0.37 0.55 0.69 0.58 0.72 0.86 1.16 1.58 1.37 1.14 1.26 1.29 1.21 1.13 1.10 1.09 1.08 1.14 1.15 1.17 1.27 1.38 1.38 1.36 1.46 1.59 1.78 1.81 1.67 1.61 1.52 1.57 1.77 1.92 1.98 2.40 2.27 2.15
0.00 0.00 0.01 0.02 0.02 0.06 0.09 0.21 0.31 0.34 0.32 0.38 0.56 0.75 0.88 0.89 0.96 1.00 1.12 1.27 1.36 1.39 1.40 1.40 1.45 1.55 1.66 1.62 1.55 1.54 1.56 1.58 1.62 1.63 1.70 1.73 1.74 1.94 2.00 1.97 1.84 1.83 1.81 1.92 1.93 2.13 2.39 2.13 2.02
0.00 0.01 0.02 0.04 0.03 0.07 0.12 0.35 0.32 0.30 0.33 0.57 0.71 0.96 1.08 0.99 0.98 0.99 1.09 1.34 1.53 1.55 1.63 1.74 1.75 1.87 1.97 1.96 1.92 1.90 1.83 1.72 1.61 1.65 1.77 1.79 1.84 2.04 2.12 1.94 1.84 2.09 2.14 2.17 2.22 2.30 2.32 2.22 2.14
0.02 0.02 0.05 0.07 0.07 0.07 0.14 0.28 0.36 0.36 0.49 0.68 0.87 1.05 1.19 1.28 1.43 1.55 1.48 1.52 1.79 1.99 2.14 2.29 2.30 2.24 2.18 2.21 2.25 2.30 2.22 1.99 1.80 1.80 1.84 1.89 1.84 1.92 2.05 1.87 1.93 2.17 2.25 2.22 2.07 2.36 2.34 2.28 2.18
0.02 0.03 0.08 0.10 0.09 0.10 0.19 0.29 0.34 0.39 0.56 0.82 1.13 1.28 1.40 1.72 2.03 2.05 2.01 2.09 2.13 2.20 2.41 2.46 2.51 2.67 2.77 2.74 2.58 2.55 2.36 2.13 2.06 2.06 2.07 2.01 1.92 1.95 2.08 1.95 2.03 2.20 2.27 2.21 2.22 2.33 2.36 2.22 2.17
0.04 0.05 0.09 0.12 0.11 0.13 0.29 0.45 0.44 0.53 0.76 0.90 1.10 1.32 1.50 1.68 1.91 2.03 1.97 2.10 2.19 2.40 2.56 2.72 3.20 3.34 3.23 3.00 2.68 2.50 2.39 2.34 2.23 2.08 1.92 1.89 1.90 2.00 2.18 2.06 2.20 2.22 2.07 2.06 2.23 2.35 2.21 2.01 2.19
0.05 0.08 0.11 0.13 0.10 0.12 0.25 0.42 0.48 0.71 0.98 0.99 0.97 1.06 1.20 1.51 1.71 1.84 1.85 1.80 2.04 2.44 2.66 2.67 2.60 2.71 2.75 2.68 2.58 2.56 2.60 2.37 2.16 2.04 1.87 1.75 1.79 1.87 1.89 1.93 1.92 1.97 2.00 2.00 2.07 2.24 2.06 1.74 1.97
0.04 0.05 0.09 0.14 0.13 0.16 0.24 0.50 0.64 0.81 0.92 0.98 1.04 1.07 1.18 1.42 1.59 1.67 1.66 1.60 1.69 1.81 1.94 1.99 2.01 1.92 1.90 1.96 2.11 2.19 2.25 2.06 1.89 1.83 1.76 1.64 1.59 1.55 1.57 1.59 1.73 1.95 2.04 1.98 2.02 2.05 1.93 1.63 1.66
0.05 0.05 0.04 0.06 0.13 0.22 0.30 0.75 0.95 0.88 0.91 1.05 1.04 1.04 1.24 1.48 1.38 1.36 1.39 1.37 1.40 1.44 1.50 1.50 1.53 1.54 1.55 1.65 1.75 1.76 1.75 1.66 1.63 1.64 1.55 1.50 1.44 1.41 1.38 1.40 1.46 1.53 1.62 1.64 1.58 1.70 1.81 1.76 1.58
0.04 0.04 0.04 0.07 0.16 0.24 0.30 0.61 0.92 1.11 1.16 1.02 0.97 0.91 1.08 1.17 1.02 0.98 1.03 1.00 1.03 1.02 1.12 1.20 1.30 1.31 1.32 1.35 1.39 1.43 1.41 1.41 1.43 1.37 1.30 1.24 1.21 1.27 1.27 1.22 1.20 1.17 1.23 1.36 1.39 1.50 1.54 1.59 1.57
0.03 0.05 0.10 0.19 0.35 0.53 0.44 0.54 0.88 1.15 1.26 1.02 0.93 0.87 0.93 0.91 0.86 0.90 0.90 0.84 0.85 0.91 1.00 1.08 1.15 1.18 1.19 1.19 1.20 1.20 1.20 1.20 1.19 1.16 1.17 1.13 1.09 1.03 1.02 1.05 1.07 1.05 1.10 1.20 1.29 1.36 1.32 1.41 1.47
0.04 0.11 0.38 0.64 0.85 0.84 0.55 0.62 0.95 0.96 0.95 0.88 0.84 0.90 0.93 0.83 0.74 0.70 0.71 0.72 0.78 0.81 0.82 0.82 0.87 0.93 0.88 0.86 0.91 0.92 0.92 0.91 0.93 0.92 0.89 0.83 0.75 0.74 0.77 0.77 0.86 0.91 1.00 1.04 1.04 1.13 1.23 1.37 1.44
0.08 0.13 0.43 0.59 0.59 0.66 0.56 0.80 1.16 0.94 0.86 0.78 0.78 0.87 0.84 0.69 0.59 0.56 0.54 0.55 0.59 0.59 0.56 0.57 0.63 0.71 0.74 0.72 0.72 0.64 0.59 0.58 0.57 0.66 0.66 0.61 0.57 0.56 0.61 0.70 0.83 0.92 0.96 0.96 0.99 0.99 1.06 1.21 1.35
0.13 0.16 0.21 0.39 0.39 0.49 0.60 0.83 1.01 0.83 0.78 0.81 0.89 0.93 0.84 0.64 0.49 0.43 0.41 0.39 0.38 0.38 0.41 0.47 0.53 0.58 0.63 0.61 0.57 0.52 0.47 0.43 0.43 0.47 0.53 0.54 0.58 0.54 0.57 0.66 0.77 0.90 1.01 1.04 1.03 1.03 1.13 1.27 1.35
0.12 0.12 0.15 0.31 0.39 0.48 0.54 0.80 0.99 1.02 0.97 0.88 0.92 0.80 0.58 0.44 0.34 0.30 0.26 0.24 0.25 0.26 0.31 0.38 0.42 0.42 0.44 0.44 0.43 0.38 0.36 0.37 0.39 0.40 0.42 0.44 0.47 0.50 0.55 0.62 0.70 0.72 0.79 0.85 0.86 0.94 1.06 1.22 1.28
0.14 0.17 0.24 0.33 0.33 0.46 0.60 0.69 0.66 0.71 0.80 0.85 0.79 0.61 0.40 0.29 0.21 0.20 0.20 0.21 0.22 0.21 0.25 0.33 0.39 0.42 0.43 0.42 0.41 0.35 0.30 0.29 0.30 0.31 0.33 0.39 0.41 0.44 0.49 0.54 0.55 0.56 0.56 0.59 0.65 0.76 0.90 0.98 0.99
0.11 0.14 0.23 0.35 0.32 0.35 0.47 0.51 0.33 0.34 0.42 0.46 0.42 0.34 0.27 0.22 0.19 0.21 0.23 0.23 0.22 0.23 0.27 0.34 0.39 0.44 0.48 0.50 0.51 0.46 0.40 0.36 0.34 0.32 0.30 0.31 0.35 0.38 0.42 0.44 0.45 0.45 0.47 0.54 0.60 0.68 0.76 0.84 0.83

GEFSSGP_prec_meanprecacc_114.txt.gz
Total_Precipitation_Accumulation
0.01 0.08 0.19 0.23 0.29 0.73 0.88 0.64 0.31 0.19 0.17 0.22 0.29 0.30 0.35 0.34 0.26 0.31 0.14 0.05 0.02 0.01 0.01 0.03 0.04 0.04 0.05 0.07 0.07 0.09 0.09 0.06 0.05 0.04 0.06 0.08 0.05 0.02 0.02 0.02 0.02 0.03 0.03 0.03 0.05 0.05 0.04 0.04 0.03
0.01 0.08 0.19 0.21 0.49 1.05 0.95 0.61 0.27 0.19 0.14 0.27 0.38 0.34 0.42 0.29 0.13 0.09 0.08 0.04 0.02 0.01 0.01 0.02 0.03 0.03 0.04 0.05 0.06 0.09 0.10 0.07 0.06 0.08 0.09 0.09 0.06 0.03 0.02 0.02 0.02 0.02 0.03 0.03 0.03 0.03 0.03 0.02 0.01
0.01 0.06 0.16 0.21 0.59 0.80 0.66 0.40 0.16 0.17 0.12 0.18 0.28 0.25 0.29 0.29 0.22 0.15 0.10 0.04 0.02 0.02 0.01 0.02 0.03 0.03 0.04 0.03 0.05 0.09 0.12 0.10 0.09 0.12 0.13 0.10 0.09 0.06 0.05 0.04 0.05 0.04 0.03 0.03 0.03 0.03 0.02 0.01 0.01
0.01 0.03 0.10 0.18 0.40 0.47 0.31 0.22 0.14 0.15 0.13 0.14 0.23 0.30 0.38 0.30 0.29 0.26 0.14 0.06 0.04 0.03 0.02 0.03 0.05 0.06 0.05 0.04 0.04 0.07 0.12 0.12 0.11 0.13 0.15 0.13 0.14 0.15 0.10 0.06 0.07 0.08 0.05 0.04 0.04 0.03 0.02 0.01 0.01
0.00 0.02 0.05 0.12 0.21 0.28 0.23 0.18 0.14 0.13 0.11 0.16 0.27 0.47 0.64 0.43 0.30 0.26 0.16 0.06 0.05 0.04 0.03 0.03 0.06 0.06 0.05 0.04 0.05 0.06 0.08 0.10 0.08 0.09 0.08 0.08 0.11 0.18 0.14 0.10 0.09 0.08 0.06 0.05 0.04 0.03 0.03 0.02 0.02
0.00 0.01 0.02 0.05 0.11 0.16 0.18 0.12 0.11 0.11 0.10 0.20 0.37 0.54 0.54 0.41 0.40 0.35 0.26 0.11 0.07 0.10 0.10 0.06 0.08 0.08 0.06 0.05 0.05 0.07 0.08 0.07 0.06 0.05 0.04 0.04 0.05 0.07 0.10 0.11 0.11 0.09 0.06 0.05 0.04 0.05 0.04 0.04 0.04
0.00 0.00 0.00 0.02 0.04 0.08 0.10 0.07 0.07 0.09 0.15 0.24 0.37 0.63 0.64 0.58 0.61 0.49 0.43 0.42 0.23 0.13 0.15 0.09 0.10 0.10 0.10 0.10 0.08 0.08 0.08 0.08 0.07 0.07 0.06 0.06 0.06 0.07 0.11 0.12 0.13 0.13 0.12 0.09 0.06 0.06 0.07 0.07 0.05
0.00 0.00 0.00 0.00 0.01 0.03 0.03 0.04 0.05 0.08 0.19 0.27 0.35 0.59 0.72 0.62 0.70 0.58 0.55 0.47 0.28 0.16 0.18 0.14 0.16 0.20 0.19 0.15 0.13 0.12 0.12 0.12 0.11 0.11 0.10 0.08 0.08 0.11 0.16 0.16 0.16 0.19 0.20 0.17 0.15 0.12 0.10 0.10 0.08
0.00 0.00 0.00 0.00 0.00 0.01 0.02 0.03 0.06 0.07 0.10 0.23 0.29 0.49 0.54 0.45 0.57 0.54 0.49 0.42 0.31 0.24 0.23 0.19 0.18 0.25 0.27 0.24 0.24 0.23 0.21 0.19 0.16 0.18 0.19 0.18 0.16 0.25 0.37 0.32 0.37 0.38 0.40 0.38 0.35 0.32 0.28 0.23 0.16
0.00 0.00 0.00 0.00 0.00 0.00 0.01 0.03 0.08 0.07 0.19 0.38 0.46 0.49 0.44 0.43 0.52 0.67 0.66 0.54 0.42 0.37 0.30 0.26 0.28 0.28 0.28 0.36 0.52 0.44 0.39 0.39 0.33 0.39 0.47 0.48 0.51 0.51 0.45 0.54 0.72 0.84 0.98 0.92 0.83 0.83 0.65 0.51 0.41
0.00 0.00 0.00 0.00 0.00 0.01 0.04 0.02 0.05 0.06 0.27 0.66 0.80 0.70 0.64 0.58 0.65 0.82 0.96 0.85 0.62 0.49 0.40 0.37 0.47 0.47 0.41 0.40 0.49 0.55 0.53 0.59 0.55 0.57 0.69 0.76 0.76 0.72 0.66 0.73 0.92 1.05 1.23 1.16 1.37 1.46 1.14 1.09 1.06
0.00 0.00 0.00 0.00 0.00 0.02 0.04 0.03 0.06 0.11 0.33 0.61 0.88 0.81 0.83 0.75 0.74 0.89 1.08 1.05 0.95 0.85 0.70 0.67 0.77 0.69 0.61 0.60 0.63 0.62 0.64 0.70 0.70 0.79 0.83 1.00 1.08 1.02 0.99 1.05 1.12 1.23 1.37 1.63 1.60 1.74 1.66 1.51 1.42
0.00 0.00 0.00 0.00 0.01 0.02 0.04 0.09 0.10 0.15 0.24 0.47 0.70 0.69 0.63 0.76 0.97 1.15 1.38 1.32 1.26 1.27 1.16 1.06 0.97 0.89 0.78 0.76 0.82 0.85 0.87 0.89 1.02 1.14 1.17 1.26 1.43 1.40 1.40 1.35 1.40 1.36 1.56 1.84 1.91 1.87 2.03 2.04 1.85
0.00 0.00 0.00 0.00 0.01 0.02 0.04 0.11 0.17 0.26 0.32 0.40 0.62 0.80 0.73 0.91 1.06 1.35 1.78 1.62 1.40 1.50 1.54 1.43 1.35 1.29 1.26 1.24 1.29 1.30 1.30 1.40 1.49 1.48 1.45 1.54 1.67 1.85 1.88 1.74 1.69 1.60 1.63 1.81 1.95 2.01 2.43 2.31 2.19
0.00 0.00 0.01 0.02 0.02 0.06 0.09 0.22 0.33 0.35 0.35 0.42 0.65 0.93 1.08 1.10 1.21 1.25 1.36 1.56 1.70 1.71 1.70 1.69 1.75 1.76 1.83 1.78 1.72 1.68 1.70 1.71 1.71 1.70 1.78 1.80 1.79 1.99 2.07 2.05 1.91 1.89 1.88 1.98 1.97 2.16 2.42 2.17 2.07
0.00 0.01 0.02 0.04 0.04 0.08 0.12 0.35 0.34 0.31 0.36 0.63 0.80 1.10 1.28 1.22 1.21 1.23 1.34 1.63 1.83 1.86 1.96 1.99 2.01 2.07 2.16 2.13 2.05 2.00 1.93 1.80 1.67 1.72 1.83 1.85 1.91 2.10 2.17 1.99 1.88 2.14 2.20 2.22 2.28 2.35 2.38 2.27 2.20
0.02 0.02 0.05 0.07 0.07 0.07 0.14 0.28 0.37 0.37 0.51 0.74 0.98 1.20 1.38 1.52 1.73 1.86 1.78 1.82 2.07 2.26 2.36 2.46 2.51 2.42 2.34 2.34 2.34 2.37 2.28 2.04 1.85 1.85 1.88 1.93 1.88 1.97 2.10 1.91 1.97 2.21 2.29 2.27 2.11 2.42 2.39 2.33 2.23
0.03 0.04 0.08 0.11 0.10 0.11 0.19 0.30 0.35 0.41 0.60 0.89 1.23 1.42 1.59 1.93 2.30 2.39 2.38 2.44 2.42 2.45 2.60 2.60 2.67 2.79 2.86 2.81 2.64 2.60 2.39 2.15 2.09 2.09 2.10 2.04 1.95 1.98 2.12 1.99 2.07 2.23 2.29 2.24 2.25 2.37 2.41 2.25 2.19
0.04 0.06 0.09 0.12 0.11 0.13 0.29 0.46 0.46 0.56 0.80 0.99 1.24 1.46 1.68 1.91 2.13 2.31 2.31 2.42 2.49 2.67 2.78 2.88 3.32 3.42 3.27 3.02 2.70 2.53 2.41 2.35 2.24 2.10 1.94 1.90 1.92 2.01 2.20 2.09 2.21 2.23 2.08 2.07 2.24 2.38 2.24 2.02 2.21
0.05 0.08 0.11 0.13 0.11 0.12 0.26 0.43 0.50 0.73 1.02 1.06 1.10 1.22 1.39 1.74 1.94 2.02 2.05 2.01 2.27 2.66 2.85 2.80 2.68 2.76 2.77 2.69 2.59 2.57 2.61 2.38 2.16 2.05 1.87 1.75 1.79 1.88 1.90 1.94 1.93 1.97 2.00 2.00 2.08 2.25 2.07 1.75 1.98
0.04 0.05 0.09 0.14 0.13 0.17 0.25 0.51 0.65 0.83 0.95 1.03 1.10 1.16 1.28 1.55 1.77 1.91 1.86 1.78 1.89 2.02 2.08 2.07 2.05 1.94 1.91 1.97 2.12 2.19 2.25 2.06 1.89 1.83 1.76 1.64 1.60 1.56 1.57 1.60 1.73 1.95 2.04 1.98 2.02 2.05 1.93 1.63 1.66
0.05 0.05 0.05 0.06 0.13 0.22 0.31 0.76 0.96 0.89 0.94 1.07 1.07 1.09 1.31 1.56 1.46 1.47 1.52 1.53 1.62 1.68 1.65 1.56 1.56 1.56 1.56 1.66 1.76 1.76 1.75 1.66 1.63 1.64 1.55 1.50 1.44 1.41 1.38 1.40 1.46 1.53 1.62 1.64 1.58 1.71 1.82 1.76 1.59
0.04 0.04 0.05 0.08 0.16 0.24 0.30 0.61 0.92 1.12 1.17 1.03 0.98 0.94 1.11 1.20 1.06 1.03 1.09 1.09 1.13 1.14 1.22 1.25 1.32 1.33 1.33 1.36 1.40 1.43 1.41 1.41 1.43 1.37 1.30 1.24 1.21 1.27 1.27 1.22 1.20 1.17 1.23 1.36 1.39 1.50 1.55 1.59 1.57
0.04 0.05 0.11 0.20 0.35 0.53 0.44 0.54 0.88 1.15 1.26 1.02 0.94 0.89 0.94 0.92 0.88 0.94 0.94 0.88 0.88 0.94 1.03 1.09 1.17 1.20 1.20 1.19 1.20 1.20 1.20 1.20 1.19 1.16 1.17 1.13 1.09 1.03 1.02 1.05 1.07 1.05 1.10 1.20 1.29 1.36 1.32 1.41 1.47
0.05 0.11 0.38 0.65 0.85 0.84 0.55 0.62 0.95 0.96 0.95 0.88 0.85 0.91 0.94 0.84 0.75 0.72 0.72 0.74 0.79 0.82 0.82 0.83 0.89 0.95 0.89 0.86 0.91 0.92 0.92 0.91 0.93 0.92 0.89 0.83 0.75 0.74 0.77 0.77 0.86 0.91 1.00 1.04 1.04 1.13 1.23 1.37 1.44
0.09 0.13 0.43 0.59 0.60 0.67 0.56 0.80 1.16 0.94 0.86 0.78 0.79 0.89 0.85 0.70 0.59 0.56 0.55 0.55 0.59 0.59 0.57 0.58 0.64 0.72 0.75 0.73 0.72 0.64 0.59 0.58 0.57 0.66 0.66 0.61 0.57 0.56 0.61 0.70 0.83 0.92 0.96 0.96 0.99 0.99 1.06 1.21 1.35
0.14 0.16 0.22 0.40 0.40 0.49 0.60 0.83 1.01 0.83 0.78 0.81 0.89 0.93 0.85 0.64 0.50 0.44 0.41 0.39 0.39 0.38 0.41 0.47 0.53 0.59 0.64 0.62 0.57 0.52 0.47 0.43 0.43 0.47 0.53 0.54 0.58 0.54 0.57 0.66 0.77 0.90 1.01 1.04 1.03 1.03 1.13 1.27 1.35
0.13 0.13 0.16 0.31 0.40 0.48 0.54 0.80 0.99 1.02 0.97 0.88 0.92 0.80 0.58 0.44 0.34 0.30 0.26 0.24 0.25 0.26 0.31 0.38 0.42 0.42 0.44 0.44 0.44 0.38 0.36 0.37 0.39 0.40 0.42 0.44 0.47 0.50 0.55 0.62 0.70 0.72 0.79 0.85 0.86 0.94 1.06 1.22 1.28
0.15 0.17 0.24 0.33 0.34 0.46 0.60 0.69 0.66 0.71 0.80 0.85 0.79 0.61 0.40 0.29 0.21 0.20 0.20 0.21 0.22 0.21 0.25 0.33 0.39 0.42 0.43 0.42 0.41 0.35 0.30 0.29 0.30 0.31 0.33 0.39 0.41 0.44 0.49 0.54 0.55 0.56 0.56 0.59 0.65 0.76 0.90 0.98 0.99
0.12 0.15 0.23 0.35 0.32 0.36 0.47 0.51 0.33 0.34 0.42 0.46 0.42 0.34 0.27 0.22 0.19 0.21 0.23 0.23 0.22 0.23 0.27 0.34 0.39 0.44 0.48 0.50 0.51 0.46 0.40 0.36 0.34 0.32 0.30 0.31 0.35 0.38 0.42 0.44 0.45 0.45 0.47 0.54 0.60 0.68 0.76 0.84 0.83

GEFSSGP_prec_meanprecacc_120.txt.gz
Total_Precipitation_Accumulation
0.01 0.08 0.19 0.23 0.30 0.73 0.88 0.64 0.31 0.20 0.18 0.23 0.30 0.30 0.35 0.35 0.29 0.34 0.15 0.06 0.02 0.01 0.02 0.04 0.05 0.05 0.06 0.07 0.08 0.10 0.10 0.06 0.05 0.05 0.07 0.09 0.05 0.03 0.03 0.02 0.03 0.03 0.04 0.04 0.05 0.06 0.05 0.04 0.04
0.01 0.08 0.19 0.21 0.49 1.05 0.95 0.61 0.27 0.19 0.15 0.27 0.39 0.34 0.42 0.30 0.14 0.10 0.10 0.06 0.03 0.01 0.02 0.03 0.05 0.05 0.05 0.06 0.07 0.10 0.11 0.08 0.07 0.08 0.10 0.10 0.07 0.03 0.03 0.03 0.03 0.03 0.03 0.03 0.04 0.04 0.03 0.03 0.02
0.01 0.06 0.16 0.21 0.59 0.80 0.66 0.40 0.17 0.17 0.12 0.18 0.28 0.25 0.29 0.31 0.23 0.17 0.13 0.08 0.04 0.03 0.02 0.03 0.05 0.05 0.05 0.05 0.06 0.10 0.13 0.11 0.10 0.13 0.13 0.11 0.09 0.07 0.05 0.05 0.06 0.05 0.04 0.03 0.03 0.03 0.03 0.02 0.02
0.01 0.03 0.10 0.18 0.40 0.47 0.31 0.22 0.14 0.15 0.13 0.15 0.24 0.30 0.38 0.30 0.29 0.28 0.18 0.13 0.07 0.05 0.03 0.05 0.07 0.08 0.07 0.06 0.05 0.08 0.13 0.13 0.12 0.14 0.16 0.13 0.14 0.15 0.10 0.06 0.08 0.09 0.06 0.04 0.04 0.03 0.02 0.02 0.02
0.00 0.02 0.05 0.12 0.21 0.28 0.23 0.18 0.14 0.13 0.11 0.16 0.27 0.48 0.65 0.43 0.31 0.28 0.21 0.14 0.10 0.08 0.06 0.06 0.08 0.09 0.08 0.08 0.08 0.08 0.09 0.10 0.09 0.09 0.09 0.09 0.11 0.18 0.14 0.11 0.09 0.09 0.07 0.05 0.04 0.04 0.03 0.02 0.02
0.00 0.01 0.02 0.05 0.11 0.16 0.18 0.12 0.11 0.11 0.11 0.20 0.38 0.55 0.55 0.42 0.42 0.37 0.29 0.19 0.16 0.15 0.16 0.12 0.13 0.11 0.09 0.08 0.09 0.10 0.10 0.08 0.08 0.06 0.05 0.05 0.06 0.08 0.11 0.12 0.12 0.10 0.07 0.05 0.05 0.05 0.05 0.04 0.04
0.00 0.00 0.00 0.02 0.04 0.08 0.10 0.07 0.07 0.09 0.15 0.24 0.37 0.64 0.65 0.60 0.63 0.53 0.53 0.53 0.34 0.21 0.23 0.17 0.17 0.15 0.14 0.14 0.13 0.11 0.11 0.11 0.09 0.09 0.08 0.08 0.08 0.09 0.12 0.14 0.14 0.14 0.13 0.10 0.07 0.07 0.07 0.07 0.06
0.00 0.00 0.00 0.00 0.01 0.03 0.03 0.04 0.05 0.09 0.19 0.27 0.35 0.61 0.74 0.66 0.75 0.64 0.64 0.55 0.38 0.25 0.26 0.22 0.23 0.26 0.24 0.20 0.19 0.18 0.17 0.16 0.14 0.13 0.13 0.12 0.12 0.14 0.18 0.18 0.18 0.21 0.22 0.18 0.16 0.13 0.10 0.11 0.08
0.00 0.00 0.00 0.00 0.00 0.01 0.02 0.03 0.06 0.07 0.10 0.23 0.30 0.50 0.56 0.50 0.65 0.59 0.56 0.48 0.39 0.33 0.30 0.28 0.29 0.33 0.34 0.30 0.30 0.30 0.29 0.26 0.22 0.24 0.25 0.24 0.23 0.30 0.41 0.35 0.40 0.40 0.42 0.40 0.37 0.34 0.29 0.24 0.17
0.00 0.00 0.00 0.00 0.00 0.00 0.01 0.03 0.08 0.07 0.19 0.39 0.46 0.50 0.48 0.49 0.58 0.71 0.71 0.59 0.47 0.42 0.35 0.32 0.33 0.33 0.34 0.42 0.60 0.54 0.50 0.50 0.44 0.50 0.57 0.58 0.61 0.59 0.51 0.59 0.77 0.90 1.03 0.96 0.88 0.86 0.66 0.52 0.42
0.00 0.00 0.00 0.00 0.00 0.01 0.04 0.02 0.05 0.07 0.28 0.67 0.81 0.73 0.71 0.66 0.72 0.86 1.00 0.90 0.66 0.53 0.44 0.42 0.52 0.52 0.47 0.48 0.58 0.64 0.64 0.72 0.68 0.70 0.82 0.87 0.86 0.82 0.75 0.82 1.01 1.15 1.31 1.25 1.46 1.53 1.20 1.14 1.10
0.00 0.00 0.00 0.00 0.00 0.02 0.04 0.04 0.06 0.12 0.34 0.61 0.90 0.83 0.90 0.81 0.80 0.94 1.14 1.12 1.00 0.89 0.75 0.73 0.85 0.79 0.73 0.71 0.74 0.73 0.77 0.83 0.83 0.92 0.97 1.13 1.20 1.13 1.10 1.16 1.23 1.34 1.48 1.77 1.74 1.85 1.76 1.60 1.48
0.00 0.00 0.00 0.00 0.01 0.02 0.04 0.10 0.10 0.16 0.25 0.48 0.72 0.71 0.66 0.83 1.05 1.25 1.49 1.42 1.35 1.34 1.24 1.16 1.08 1.01 0.92 0.91 0.95 0.97 1.00 1.01 1.13 1.28 1.30 1.38 1.56 1.51 1.51 1.45 1.50 1.46 1.67 1.95 2.03 1.96 2.13 2.15 1.92
0.00 0.00 0.00 0.00 0.01 0.02 0.05 0.11 0.17 0.27 0.33 0.43 0.66 0.87 0.79 0.99 1.19 1.50 1.93 1.74 1.50 1.59 1.62 1.52 1.46 1.40 1.39 1.40 1.44 1.41 1.40 1.51 1.60 1.58 1.54 1.63 1.78 1.95 1.97 1.83 1.79 1.70 1.73 1.91 2.05 2.11 2.53 2.39 2.26
0.00 0.00 0.01 0.02 0.02 0.07 0.10 0.23 0.34 0.36 0.36 0.46 0.70 1.02 1.18 1.21 1.35 1.39 1.49 1.66 1.79 1.78 1.79 1.80 1.87 1.86 1.93 1.88 1.86 1.78 1.79 1.79 1.78 1.78 1.86 1.87 1.87 2.06 2.13 2.12 1.99 1.97 1.97 2.08 2.08 2.26 2.50 2.23 2.12
0.00 0.01 0.02 0.04 0.04 0.08 0.13 0.38 0.35 0.32 0.37 0.67 0.86 1.18 1.39 1.35 1.35 1.38 1.50 1.78 1.96 1.98 2.06 2.09 2.13 2.19 2.25 2.22 2.16 2.10 2.01 1.87 1.74 1.78 1.90 1.91 1.96 2.15 2.23 2.04 1.93 2.21 2.28 2.32 2.40 2.45 2.46 2.33 2.25
0.02 0.02 0.05 0.07 0.07 0.07 0.14 0.30 0.37 0.38 0.52 0.78 1.03 1.29 1.49 1.64 1.88 2.03 1.98 2.02 2.27 2.42 2.49 2.58 2.61 2.54 2.42 2.43 2.43 2.46 2.37 2.12 1.92 1.90 1.94 1.97 1.92 2.00 2.14 1.96 2.02 2.26 2.34 2.32 2.17 2.46 2.44 2.38 2.28
0.03 0.04 0.08 0.11 0.10 0.11 0.19 0.31 0.35 0.41 0.61 0.92 1.27 1.48 1.68 2.04 2.43 2.57 2.59 2.67 2.60 2.61 2.73 2.72 2.80 2.91 2.95 2.89 2.70 2.66 2.46 2.21 2.13 2.12 2.14 2.07 1.97 2.01 2.15 2.03 2.11 2.26 2.32 2.27 2.29 2.41 2.45 2.29 2.24
0.04 0.06 0.09 0.12 0.11 0.13 0.29 0.46 0.46 0.56 0.81 1.01 1.27 1.50 1.73 1.98 2.27 2.50 2.50 2.60 2.63 2.83 2.94 3.00 3.44 3.53 3.36 3.09 2.77 2.59 2.47 2.39 2.27 2.13 1.97 1.93 1.94 2.03 2.22 2.11 2.25 2.27 2.11 2.10 2.27 2.40 2.27 2.06 2.24
0.05 0.08 0.11 0.13 0.11 0.12 0.26 0.43 0.50 0.73 1.02 1.06 1.12 1.25 1.43 1.79 2.04 2.16 2.19 2.17 2.41 2.79 2.99 2.92 2.79 2.85 2.85 2.76 2.67 2.62 2.66 2.41 2.19 2.07 1.89 1.77 1.81 1.89 1.91 1.96 1.94 1.99 2.03 2.03 2.10 2.27 2.08 1.77 2.00
0.04 0.05 0.09 0.14 0.13 0.17 0.26 0.52 0.65 0.83 0.95 1.03 1.11 1.18 1.32 1.61 1.83 1.98 1.94 1.91 2.00 2.11 2.18 2.18 2.16 2.03 1.98 2.03 2.16 2.23 2.28 2.08 1.91 1.84 1.77 1.65 1.60 1.57 1.58 1.61 1.74 1.96 2.06 2.00 2.04 2.07 1.94 1.64 1.67
0.05 0.06 0.05 0.06 0.13 0.23 0.32 0.77 0.97 0.90 0.94 1.08 1.09 1.11 1.33 1.60 1.50 1.51 1.56 1.59 1.69 1.77 1.74 1.64 1.64 1.63 1.61 1.69 1.79 1.79 1.77 1.67 1.63 1.64 1.56 1.50 1.44 1.41 1.38 1.40 1.46 1.53 1.62 1.65 1.59 1.71 1.83 1.77 1.59
0.04 0.04 0.05 0.08 0.16 0.24 0.30 0.61 0.92 1.12 1.17 1.04 0.99 0.95 1.12 1.23 1.08 1.07 1.12 1.12 1.18 1.20 1.28 1.30 1.37 1.37 1.37 1.38 1.42 1.45 1.42 1.42 1.43 1.37 1.31 1.25 1.21 1.27 1.27 1.22 1.21 1.18 1.24 1.36 1.39 1.50 1.55 1.60 1.58
0.04 0.05 0.11 0.20 0.35 0.54 0.44 0.54 0.88 1.15 1.26 1.02 0.94 0.90 0.95 0.93 0.89 0.95 0.96 0.90 0.92 0.98 1.08 1.13 1.20 1.23 1.22 1.21 1.22 1.22 1.22 1.21 1.20 1.16 1.17 1.14 1.09 1.03 1.02 1.05 1.07 1.06 1.11 1.20 1.29 1.36 1.32 1.42 1.47
0.05 0.11 0.39 0.66 0.85 0.85 0.55 0.62 0.95 0.96 0.95 0.89 0.85 0.91 0.94 0.84 0.75 0.72 0.73 0.75 0.81 0.85 0.86 0.86 0.91 0.97 0.91 0.87 0.92 0.93 0.94 0.92 0.93 0.92 0.89 0.83 0.75 0.74 0.77 0.77 0.86 0.91 1.01 1.04 1.05 1.13 1.23 1.37 1.45
0.09 0.14 0.44 0.60 0.61 0.67 0.56 0.80 1.16 0.94 0.86 0.78 0.79 0.89 0.85 0.70 0.59 0.56 0.55 0.57 0.61 0.61 0.59 0.59 0.66 0.74 0.76 0.75 0.74 0.65 0.60 0.58 0.58 0.66 0.66 0.61 0.57 0.56 0.61 0.70 0.83 0.92 0.96 0.96 0.99 0.99 1.06 1.21 1.35
0.14 0.16 0.22 0.40 0.40 0.50 0.60 0.83 1.01 0.83 0.78 0.81 0.89 0.93 0.85 0.65 0.50 0.44 0.41 0.40 0.40 0.39 0.42 0.48 0.55 0.61 0.65 0.64 0.58 0.52 0.47 0.44 0.43 0.47 0.54 0.54 0.58 0.54 0.57 0.66 0.77 0.90 1.01 1.04 1.03 1.04 1.13 1.27 1.35
0.13 0.14 0.16 0.32 0.41 0.49 0.55 0.80 0.99 1.02 0.97 0.88 0.92 0.80 0.58 0.44 0.34 0.30 0.26 0.25 0.25 0.27 0.31 0.39 0.44 0.45 0.45 0.45 0.44 0.38 0.37 0.37 0.39 0.41 0.42 0.44 0.47 0.50 0.55 0.62 0.70 0.72 0.79 0.85 0.86 0.94 1.06 1.22 1.28
0.15 0.18 0.25 0.34 0.34 0.47 0.60 0.69 0.66 0.71 0.80 0.85 0.79 0.61 0.40 0.29 0.21 0.20 0.20 0.21 0.22 0.21 0.26 0.34 0.41 0.44 0.45 0.43 0.42 0.35 0.31 0.29 0.30 0.32 0.33 0.39 0.41 0.44 0.49 0.54 0.55 0.56 0.56 0.59 0.65 0.76 0.90 0.98 0.99
0.12 0.15 0.23 0.36 0.32 0.36 0.47 0.51 0.33 0.34 0.42 0.46 0.42 0.34 0.27 0.22 0.19 0.21 0.23 0.23 0.22 0.23 0.28 0.35 0.41 0.46 0.49 0.51 0.51 0.47 0.40 0.36 0.34 0.32 0.30 0.31 0.35 0.38 0.42 0.44 0.45 0.45 0.47 0.54 0.61 0.68 0.76 0.84 0.83

GEFSSGP_prec_meanprecacc_126.txt.gz
Total_Precipitation_Accumulation
0.01 0.08 0.19 0.23 0.31 0.77 0.92 0.66 0.31 0.20 0.18 0.23 0.30 0.31 0.36 0.39 0.36 0.50 0.22 0.06 0.02 0.01 0.02 0.04 0.06 0.06 0.07 0.09 0.10 0.12 0.12 0.08 0.06 0.06 0.07 0.10 0.06 0.04 0.04 0.04 0.04 0.05 0.05 0.06 0.07 0.08 0.07 0.06 0.05
0.01 0.08 0.19 0.21 0.51 1.08 0.97 0.63 0.29 0.20 0.15 0.27 0.39 0.34 0.43 0.33 0.15 0.12 0.11 0.07 0.03 0.01 0.02 0.03 0.05 0.06 0.07 0.08 0.09 0.13 0.13 0.10 0.08 0.10 0.11 0.11 0.08 0.04 0.04 0.04 0.04 0.04 0.05 0.04 0.05 0.05 0.05 0.04 0.03
0.01 0.06 0.16 0.21 0.59 0.80 0.66 0.40 0.17 0.17 0.12 0.18 0.28 0.25 0.30 0.34 0.24 0.17 0.14 0.08 0.05 0.03 0.02 0.03 0.05 0.05 0.07 0.07 0.08 0.12 0.16 0.14 0.12 0.14 0.14 0.11 0.10 0.08 0.06 0.06 0.07 0.06 0.05 0.04 0.05 0.05 0.04 0.03 0.03
0.01 0.03 0.10 0.18 0.40 0.47 0.31 0.22 0.14 0.15 0.13 0.15 0.24 0.32 0.39 0.31 0.30 0.29 0.19 0.14 0.08 0.05 0.03 0.05 0.07 0.09 0.08 0.08 0.08 0.11 0.16 0.16 0.14 0.15 0.17 0.14 0.15 0.17 0.11 0.07 0.09 0.10 0.06 0.05 0.05 0.04 0.03 0.02 0.02
0.00 0.02 0.05 0.12 0.21 0.28 0.23 0.18 0.14 0.13 0.12 0.16 0.28 0.54 0.68 0.44 0.32 0.29 0.23 0.16 0.12 0.09 0.06 0.07 0.09 0.10 0.09 0.10 0.11 0.11 0.12 0.13 0.11 0.10 0.10 0.10 0.12 0.19 0.15 0.12 0.10 0.10 0.08 0.06 0.05 0.04 0.04 0.03 0.03
0.00 0.01 0.02 0.05 0.11 0.16 0.18 0.12 0.11 0.11 0.11 0.21 0.38 0.60 0.60 0.45 0.46 0.43 0.33 0.24 0.22 0.20 0.17 0.14 0.14 0.13 0.12 0.12 0.13 0.13 0.12 0.10 0.09 0.08 0.06 0.06 0.07 0.09 0.12 0.13 0.12 0.10 0.08 0.06 0.06 0.06 0.05 0.04 0.05
0.00 0.00 0.00 0.02 0.04 0.08 0.10 0.07 0.07 0.09 0.16 0.25 0.40 0.71 0.70 0.68 0.69 0.59 0.56 0.58 0.44 0.34 0.29 0.21 0.18 0.17 0.16 0.17 0.17 0.16 0.14 0.13 0.11 0.10 0.09 0.09 0.09 0.10 0.13 0.15 0.15 0.15 0.14 0.10 0.07 0.07 0.07 0.07 0.06
0.00 0.00 0.00 0.00 0.01 0.03 0.03 0.04 0.05 0.09 0.20 0.28 0.37 0.69 0.83 0.74 0.78 0.67 0.68 0.63 0.50 0.36 0.35 0.29 0.28 0.30 0.26 0.22 0.22 0.22 0.20 0.19 0.17 0.16 0.15 0.13 0.14 0.16 0.20 0.20 0.19 0.22 0.23 0.19 0.16 0.13 0.11 0.11 0.09
0.00 0.00 0.00 0.00 0.00 0.01 0.02 0.03 0.07 0.07 0.11 0.24 0.32 0.53 0.65 0.56 0.68 0.64 0.62 0.60 0.58 0.49 0.41 0.39 0.37 0.39 0.39 0.34 0.32 0.34 0.34 0.31 0.27 0.28 0.28 0.28 0.29 0.37 0.47 0.40 0.42 0.41 0.43 0.42 0.37 0.34 0.30 0.24 0.17
0.00 0.00 0.00 0.00 0.00 0.00 0.01 0.03 0.08 0.08 0.20 0.43 0.50 0.53 0.50 0.54 0.65 0.79 0.79 0.69 0.64 0.62 0.47 0.42 0.42 0.39 0.39 0.49 0.67 0.62 0.59 0.59 0.54 0.62 0.65 0.67 0.73 0.72 0.62 0.67 0.81 0.92 1.05 0.99 0.91 0.88 0.68 0.55 0.47
0.00 0.00 0.00 0.00 0.00 0.01 0.04 0.03 0.05 0.07 0.33 0.78 0.91 0.81 0.75 0.71 0.81 0.97 1.10 1.01 0.80 0.67 0.58 0.53 0.62 0.61 0.55 0.58 0.69 0.76 0.78 0.87 0.81 0.84 0.96 1.01 0.96 0.91 0.85 0.93 1.11 1.22 1.38 1.35 1.55 1.58 1.26 1.20 1.18
0.00 0.00 0.00 0.00 0.00 0.02 0.04 0.04 0.06 0.12 0.36 0.66 0.97 0.90 0.95 0.89 0.90 1.05 1.28 1.31 1.20 1.04 0.88 0.86 0.96 0.91 0.84 0.80 0.85 0.84 0.87 0.94 0.94 1.05 1.09 1.27 1.33 1.26 1.23 1.30 1.35 1.46 1.61 1.90 1.84 1.95 1.83 1.66 1.55
0.00 0.00 0.00 0.00 0.01 0.02 0.04 0.10 0.10 0.16 0.25 0.49 0.73 0.73 0.72 0.93 1.19 1.41 1.69 1.64 1.57 1.55 1.41 1.28 1.19 1.14 1.10 1.11 1.10 1.09 1.11 1.11 1.25 1.41 1.41 1.50 1.68 1.63 1.63 1.56 1.60 1.55 1.77 2.07 2.13 2.04 2.21 2.21 1.98
0.00 0.00 0.00 0.01 0.01 0.02 0.05 0.12 0.17 0.27 0.34 0.43 0.67 0.89 0.86 1.10 1.32 1.65 2.15 2.02 1.73 1.75 1.77 1.64 1.55 1.51 1.54 1.61 1.63 1.55 1.51 1.62 1.71 1.69 1.63 1.72 1.89 2.05 2.08 1.95 1.89 1.79 1.84 2.02 2.15 2.18 2.60 2.46 2.32
0.00 0.00 0.01 0.03 0.04 0.07 0.10 0.24 0.34 0.38 0.37 0.46 0.71 1.04 1.23 1.30 1.46 1.51 1.68 1.88 2.04 1.95 1.92 1.92 1.95 1.94 2.04 2.04 2.01 1.88 1.87 1.88 1.88 1.89 1.95 1.94 1.94 2.14 2.22 2.22 2.07 2.04 2.04 2.16 2.17 2.34 2.59 2.30 2.18
0.00 0.01 0.03 0.06 0.06 0.08 0.14 0.41 0.36 0.32 0.38 0.68 0.87 1.20 1.43 1.42 1.45 1.48 1.64 1.98 2.18 2.16 2.22 2.23 2.21 2.28 2.35 2.37 2.29 2.20 2.08 1.94 1.81 1.85 1.97 1.96 2.02 2.20 2.28 2.09 1.97 2.24 2.32 2.36 2.45 2.52 2.54 2.40 2.32
0.03 0.03 0.06 0.08 0.08 0.08 0.15 0.32 0.40 0.38 0.53 0.79 1.05 1.33 1.54 1.70 1.97 2.14 2.10 2.19 2.46 2.66 2.71 2.73 2.76 2.65 2.53 2.55 2.55 2.55 2.45 2.18 1.97 1.95 1.98 2.01 1.95 2.03 2.18 2.01 2.07 2.31 2.38 2.37 2.20 2.52 2.50 2.43 2.34
0.03 0.04 0.08 0.11 0.10 0.11 0.19 0.32 0.37 0.42 0.62 0.94 1.31 1.54 1.77 2.13 2.52 2.66 2.69 2.80 2.77 2.83 2.97 2.88 2.92 3.03 3.07 3.01 2.80 2.76 2.54 2.28 2.18 2.16 2.18 2.11 2.00 2.03 2.18 2.06 2.14 2.29 2.36 2.31 2.32 2.46 2.48 2.32 2.27
0.05 0.06 0.10 0.13 0.11 0.13 0.29 0.47 0.47 0.57 0.82 1.03 1.30 1.56 1.81 2.07 2.36 2.58 2.58 2.71 2.78 3.04 3.15 3.16 3.56 3.64 3.49 3.22 2.87 2.69 2.57 2.48 2.32 2.16 2.00 1.97 1.98 2.07 2.25 2.14 2.29 2.30 2.15 2.14 2.30 2.44 2.30 2.08 2.25
0.05 0.08 0.12 0.13 0.11 0.12 0.26 0.43 0.50 0.75 1.03 1.07 1.15 1.29 1.49 1.85 2.12 2.25 2.25 2.26 2.56 2.95 3.17 3.06 2.90 2.98 2.99 2.89 2.79 2.74 2.77 2.49 2.24 2.11 1.92 1.80 1.85 1.92 1.93 1.98 1.97 2.02 2.07 2.09 2.15 2.31 2.12 1.79 2.01
0.04 0.06 0.09 0.14 0.14 0.17 0.26 0.53 0.67 0.87 0.96 1.03 1.12 1.22 1.37 1.65 1.89 2.04 1.99 1.98 2.16 2.24 2.31 2.29 2.26 2.15 2.11 2.15 2.26 2.32 2.37 2.15 1.96 1.88 1.80 1.68 1.63 1.59 1.60 1.62 1.76 1.99 2.09 2.04 2.07 2.10 1.97 1.66 1.68
0.05 0.06 0.05 0.06 0.14 0.23 0.34 0.82 1.00 0.92 0.95 1.08 1.10 1.12 1.35 1.63 1.55 1.56 1.61 1.66 1.82 1.88 1.84 1.73 1.71 1.71 1.69 1.78 1.89 1.86 1.83 1.73 1.69 1.68 1.59 1.53 1.47 1.43 1.40 1.42 1.48 1.55 1.64 1.67 1.60 1.73 1.84 1.79 1.60
0.05 0.04 0.05 0.08 0.16 0.26 0.34 0.64 0.94 1.15 1.21 1.05 0.99 0.95 1.14 1.24 1.11 1.10 1.16 1.18 1.23 1.26 1.35 1.36 1.42 1.43 1.44 1.46 1.50 1.52 1.48 1.47 1.46 1.39 1.33 1.27 1.23 1.29 1.28 1.23 1.22 1.19 1.25 1.37 1.40 1.51 1.56 1.60 1.58
0.04 0.06 0.11 0.22 0.38 0.58 0.47 0.56 0.90 1.19 1.33 1.04 0.95 0.90 0.98 0.95 0.91 0.97 0.99 0.94 0.96 1.03 1.12 1.19 1.26 1.29 1.28 1.27 1.28 1.28 1.27 1.25 1.22 1.18 1.19 1.15 1.10 1.04 1.03 1.06 1.08 1.07 1.12 1.21 1.30 1.37 1.33 1.42 1.48
0.05 0.12 0.42 0.75 1.00 0.99 0.61 0.64 0.96 0.97 0.95 0.89 0.85 0.91 0.94 0.85 0.76 0.73 0.74 0.78 0.84 0.89 0.89 0.90 0.97 1.01 0.95 0.92 0.97 0.98 0.97 0.95 0.95 0.94 0.90 0.84 0.76 0.74 0.77 0.78 0.87 0.92 1.01 1.04 1.05 1.14 1.23 1.37 1.45
0.09 0.14 0.47 0.68 0.69 0.75 0.62 0.83 1.18 0.94 0.86 0.78 0.79 0.89 0.85 0.70 0.60 0.57 0.56 0.58 0.63 0.64 0.63 0.63 0.70 0.78 0.80 0.77 0.77 0.68 0.62 0.59 0.59 0.67 0.66 0.62 0.57 0.56 0.61 0.71 0.83 0.92 0.96 0.96 1.00 1.00 1.06 1.21 1.35
0.14 0.16 0.22 0.41 0.42 0.52 0.64 0.86 1.02 0.83 0.78 0.81 0.89 0.93 0.85 0.65 0.50 0.44 0.42 0.41 0.41 0.42 0.45 0.52 0.58 0.63 0.68 0.67 0.61 0.54 0.48 0.46 0.44 0.48 0.54 0.54 0.58 0.54 0.57 0.66 0.77 0.90 1.01 1.04 1.03 1.04 1.13 1.27 1.35
0.13 0.14 0.17 0.32 0.44 0.52 0.58 0.85 1.05 1.04 0.97 0.88 0.92 0.80 0.58 0.44 0.34 0.30 0.26 0.25 0.26 0.28 0.34 0.42 0.47 0.47 0.48 0.49 0.48 0.40 0.39 0.39 0.40 0.41 0.42 0.44 0.47 0.50 0.55 0.62 0.70 0.72 0.79 0.85 0.86 0.94 1.06 1.22 1.28
0.15 0.18 0.25 0.36 0.35 0.49 0.67 0.78 0.72 0.73 0.81 0.87 0.79 0.61 0.40 0.29 0.21 0.20 0.20 0.21 0.22 0.22 0.28 0.37 0.43 0.47 0.47 0.46 0.45 0.39 0.33 0.30 0.31 0.32 0.33 0.39 0.41 0.44 0.49 0.54 0.55 0.56 0.57 0.59 0.65 0.76 0.90 0.98 0.99
0.13 0.15 0.23 0.37 0.34 0.37 0.51 0.56 0.36 0.36 0.43 0.46 0.43 0.34 0.27 0.22 0.19 0.21 0.24 0.24 0.22 0.24 0.29 0.37 0.43 0.48 0.51 0.52 0.53 0.49 0.42 0.38 0.35 0.32 0.30 0.31 0.35 0.38 0.42 0.44 0.45 0.45 0.47 0.54 0.61 0.68 0.76 0.84 0.83

GEFSSGP_prec_meanprecacc_132.txt.gz
Total_Precipitation_Accumulation
0.01 0.08 0.20 0.25 0.37 0.89 1.01 0.72 0.36 0.22 0.22 0.26 0.31 0.32 0.40 0.45 0.44 0.64 0.33 0.12 0.04 0.02 0.02 0.05 0.06 0.07 0.08 0.10 0.11 0.13 0.13 0.08 0.07 0.06 0.08 0.10 0.06 0.04 0.05 0.05 0.05 0.06 0.06 0.06 0.08 0.09 0.08 0.07 0.06
0.01 0.08 0.20 0.24 0.59 1.18 1.01 0.67 0.34 0.25 0.18 0.30 0.40 0.36 0.49 0.43 0.20 0.16 0.17 0.12 0.05 0.02 0.02 0.03 0.05 0.07 0.07 0.08 0.10 0.13 0.14 0.10 0.09 0.10 0.11 0.11 0.08 0.05 0.04 0.05 0.05 0.05 0.06 0.05 0.06 0.06 0.06 0.04 0.04
0.01 0.06 0.16 0.23 0.64 0.85 0.69 0.42 0.19 0.19 0.13 0.19 0.30 0.28 0.38 0.44 0.28 0.20 0.20 0.16 0.08 0.04 0.02 0.04 0.06 0.06 0.07 0.08 0.08 0.13 0.17 0.14 0.12 0.15 0.14 0.12 0.11 0.08 0.07 0.06 0.08 0.07 0.06 0.05 0.05 0.05 0.04 0.04 0.04
0.01 0.03 0.10 0.19 0.42 0.47 0.32 0.23 0.16 0.16 0.14 0.16 0.26 0.37 0.48 0.38 0.34 0.34 0.28 0.25 0.13 0.07 0.04 0.05 0.08 0.09 0.09 0.09 0.08 0.12 0.17 0.17 0.15 0.15 0.17 0.15 0.16 0.17 0.12 0.08 0.09 0.10 0.07 0.05 0.05 0.04 0.03 0.03 0.04
0.00 0.02 0.06 0.13 0.23 0.29 0.23 0.18 0.15 0.14 0.13 0.20 0.33 0.60 0.79 0.54 0.39 0.36 0.33 0.28 0.22 0.13 0.07 0.07 0.09 0.10 0.10 0.10 0.11 0.11 0.13 0.13 0.12 0.11 0.10 0.10 0.13 0.20 0.16 0.12 0.11 0.10 0.08 0.06 0.05 0.04 0.04 0.04 0.05
0.00 0.01 0.03 0.06 0.11 0.16 0.18 0.13 0.11 0.12 0.14 0.25 0.45 0.69 0.75 0.58 0.56 0.56 0.57 0.45 0.38 0.28 0.19 0.15 0.15 0.14 0.12 0.12 0.13 0.14 0.13 0.11 0.10 0.08 0.06 0.07 0.08 0.10 0.13 0.14 0.13 0.11 0.08 0.06 0.06 0.06 0.05 0.05 0.06
0.00 0.00 0.01 0.02 0.05 0.08 0.11 0.08 0.08 0.10 0.18 0.30 0.47 0.81 0.83 0.81 0.80 0.74 0.82 0.83 0.65 0.43 0.33 0.25 0.19 0.17 0.17 0.18 0.18 0.16 0.14 0.13 0.12 0.11 0.10 0.10 0.10 0.11 0.14 0.15 0.15 0.15 0.14 0.11 0.08 0.07 0.08 0.08 0.07
0.00 0.00 0.00 0.00 0.01 0.04 0.04 0.05 0.06 0.10 0.22 0.31 0.44 0.85 1.05 0.90 0.91 0.82 0.88 0.93 0.83 0.55 0.44 0.35 0.32 0.32 0.27 0.23 0.23 0.23 0.21 0.20 0.17 0.16 0.16 0.15 0.15 0.17 0.21 0.21 0.20 0.22 0.23 0.19 0.17 0.13 0.11 0.11 0.09
0.00 0.00 0.00 0.00 0.01 0.02 0.02 0.04 0.08 0.08 0.12 0.27 0.44 0.74 0.83 0.74 0.81 0.78 0.81 0.91 1.04 0.88 0.57 0.49 0.47 0.45 0.42 0.36 0.34 0.36 0.36 0.33 0.29 0.30 0.30 0.29 0.31 0.39 0.49 0.41 0.44 0.42 0.44 0.42 0.38 0.34 0.30 0.25 0.18
0.00 0.00 0.00 0.00 0.00 0.01 0.02 0.03 0.08 0.08 0.22 0.47 0.57 0.68 0.66 0.74 0.79 0.90 0.94 0.91 1.00 1.07 0.66 0.51 0.51 0.47 0.46 0.53 0.70 0.65 0.60 0.60 0.56 0.64 0.66 0.69 0.76 0.75 0.65 0.69 0.83 0.93 1.06 1.00 0.91 0.88 0.69 0.56 0.48
0.00 0.00 0.00 0.01 0.00 0.01 0.04 0.03 0.05 0.08 0.34 0.83 0.98 0.98 0.94 0.86 0.93 1.08 1.23 1.21 0.98 0.94 0.76 0.62 0.69 0.69 0.63 0.65 0.73 0.80 0.81 0.88 0.82 0.85 0.97 1.04 1.00 0.94 0.89 0.96 1.14 1.24 1.39 1.36 1.56 1.59 1.27 1.21 1.20
0.00 0.00 0.00 0.00 0.01 0.02 0.04 0.04 0.07 0.12 0.39 0.69 0.99 0.98 1.11 1.01 1.03 1.20 1.41 1.49 1.39 1.25 1.13 1.03 1.05 0.98 0.92 0.88 0.89 0.89 0.90 0.95 0.96 1.08 1.11 1.30 1.36 1.29 1.26 1.33 1.38 1.48 1.62 1.92 1.85 1.96 1.84 1.69 1.59
0.00 0.00 0.00 0.00 0.01 0.02 0.04 0.10 0.11 0.16 0.27 0.50 0.75 0.77 0.81 1.04 1.33 1.59 1.85 1.81 1.82 1.82 1.70 1.51 1.33 1.25 1.21 1.23 1.19 1.14 1.15 1.14 1.27 1.42 1.43 1.52 1.70 1.65 1.66 1.59 1.63 1.57 1.79 2.08 2.14 2.05 2.22 2.23 2.03
0.00 0.00 0.00 0.01 0.01 0.03 0.05 0.12 0.18 0.28 0.36 0.44 0.68 0.91 0.93 1.22 1.44 1.84 2.40 2.30 2.03 2.10 2.09 1.87 1.70 1.63 1.64 1.72 1.76 1.63 1.55 1.65 1.72 1.71 1.65 1.74 1.91 2.07 2.10 1.96 1.90 1.80 1.85 2.04 2.17 2.20 2.61 2.47 2.33
0.00 0.00 0.02 0.04 0.05 0.07 0.11 0.25 0.35 0.40 0.39 0.47 0.72 1.06 1.27 1.39 1.62 1.76 2.05 2.31 2.39 2.37 2.24 2.18 2.13 2.06 2.14 2.11 2.10 1.96 1.92 1.91 1.90 1.91 1.97 1.97 1.97 2.17 2.24 2.23 2.09 2.06 2.06 2.17 2.18 2.37 2.60 2.31 2.19
0.01 0.02 0.05 0.08 0.07 0.09 0.15 0.44 0.37 0.35 0.40 0.70 0.89 1.23 1.48 1.51 1.63 1.75 1.90 2.35 2.53 2.56 2.56 2.53 2.41 2.42 2.48 2.48 2.39 2.27 2.13 1.98 1.85 1.88 1.99 1.99 2.04 2.21 2.29 2.10 1.99 2.26 2.35 2.38 2.46 2.53 2.56 2.41 2.33
0.03 0.04 0.07 0.09 0.09 0.09 0.16 0.34 0.41 0.40 0.55 0.81 1.07 1.37 1.61 1.81 2.13 2.32 2.29 2.42 2.76 2.98 3.09 3.08 3.01 2.81 2.66 2.65 2.66 2.65 2.53 2.27 2.03 1.99 2.01 2.03 1.96 2.04 2.18 2.02 2.08 2.33 2.41 2.38 2.21 2.52 2.50 2.44 2.35
0.03 0.04 0.09 0.12 0.11 0.12 0.20 0.34 0.40 0.45 0.63 0.96 1.34 1.59 1.83 2.21 2.63 2.77 2.83 3.00 3.05 3.16 3.39 3.31 3.21 3.21 3.22 3.12 2.90 2.85 2.61 2.36 2.23 2.19 2.21 2.12 2.01 2.04 2.19 2.08 2.16 2.31 2.37 2.31 2.33 2.46 2.49 2.32 2.27
0.05 0.06 0.11 0.14 0.12 0.15 0.30 0.48 0.50 0.63 0.87 1.07 1.35 1.63 1.89 2.17 2.50 2.77 2.73 2.85 3.02 3.40 3.56 3.59 3.85 3.82 3.64 3.34 2.94 2.75 2.61 2.53 2.37 2.19 2.01 1.98 1.99 2.07 2.26 2.15 2.30 2.31 2.15 2.14 2.31 2.45 2.31 2.09 2.25
0.06 0.09 0.12 0.14 0.12 0.14 0.27 0.45 0.55 0.83 1.10 1.11 1.19 1.34 1.55 1.95 2.26 2.46 2.42 2.37 2.70 3.22 3.52 3.44 3.20 3.16 3.13 2.99 2.85 2.80 2.83 2.55 2.29 2.14 1.94 1.81 1.85 1.93 1.94 1.99 1.98 2.03 2.08 2.10 2.16 2.32 2.12 1.80 2.01
0.04 0.06 0.10 0.15 0.14 0.18 0.28 0.56 0.72 0.94 1.06 1.09 1.14 1.23 1.39 1.69 1.98 2.19 2.11 2.05 2.24 2.36 2.50 2.52 2.50 2.34 2.23 2.24 2.32 2.39 2.44 2.21 2.00 1.90 1.82 1.69 1.64 1.60 1.61 1.63 1.76 1.99 2.09 2.05 2.09 2.10 1.98 1.67 1.68
0.06 0.06 0.05 0.07 0.14 0.25 0.36 0.85 1.03 0.95 1.02 1.13 1.12 1.14 1.36 1.65 1.60 1.67 1.73 1.72 1.88 1.98 1.97 1.89 1.85 1.86 1.81 1.84 1.93 1.90 1.86 1.76 1.71 1.69 1.60 1.54 1.48 1.44 1.40 1.42 1.48 1.55 1.64 1.68 1.61 1.73 1.84 1.79 1.60
0.05 0.04 0.05 0.09 0.17 0.27 0.37 0.67 0.99 1.20 1.29 1.11 1.02 0.98 1.18 1.29 1.16 1.16 1.26 1.25 1.31 1.37 1.48 1.49 1.52 1.54 1.54 1.53 1.54 1.55 1.51 1.50 1.48 1.40 1.34 1.27 1.23 1.29 1.28 1.23 1.22 1.19 1.25 1.38 1.41 1.51 1.56 1.60 1.58
0.04 0.06 0.11 0.22 0.40 0.62 0.51 0.62 0.98 1.23 1.37 1.07 0.97 0.93 1.04 1.00 0.94 1.01 1.05 1.00 1.02 1.12 1.25 1.30 1.34 1.35 1.33 1.32 1.32 1.31 1.30 1.28 1.24 1.19 1.19 1.15 1.10 1.04 1.03 1.06 1.09 1.07 1.12 1.22 1.30 1.37 1.33 1.42 1.48
0.05 0.12 0.43 0.77 1.04 1.06 0.66 0.69 1.01 1.00 0.98 0.92 0.88 0.94 0.97 0.87 0.78 0.75 0.77 0.82 0.87 0.93 0.96 0.98 1.04 1.06 0.98 0.95 1.01 1.01 1.00 0.98 0.97 0.95 0.90 0.84 0.76 0.74 0.77 0.78 0.87 0.92 1.01 1.05 1.05 1.14 1.23 1.37 1.45
0.10 0.14 0.48 0.70 0.73 0.82 0.70 0.95 1.28 1.00 0.90 0.81 0.82 0.91 0.87 0.72 0.61 0.57 0.57 0.60 0.65 0.67 0.67 0.68 0.75 0.82 0.83 0.79 0.79 0.71 0.65 0.62 0.60 0.68 0.67 0.62 0.58 0.56 0.61 0.71 0.83 0.92 0.96 0.96 1.00 1.00 1.06 1.21 1.35
0.15 0.17 0.23 0.42 0.44 0.58 0.73 1.01 1.16 0.88 0.81 0.86 0.96 0.97 0.87 0.66 0.51 0.45 0.43 0.42 0.44 0.46 0.50 0.55 0.60 0.66 0.71 0.68 0.63 0.56 0.51 0.48 0.45 0.49 0.54 0.54 0.58 0.54 0.57 0.66 0.77 0.90 1.01 1.04 1.03 1.04 1.13 1.27 1.35
0.15 0.15 0.18 0.35 0.46 0.58 0.67 0.95 1.18 1.11 1.03 0.94 1.01 0.85 0.61 0.46 0.36 0.31 0.28 0.27 0.29 0.33 0.40 0.46 0.49 0.49 0.50 0.51 0.49 0.42 0.41 0.42 0.41 0.42 0.43 0.44 0.47 0.50 0.55 0.62 0.70 0.72 0.79 0.85 0.86 0.94 1.06 1.22 1.28
0.18 0.20 0.28 0.38 0.39 0.54 0.74 0.85 0.81 0.79 0.86 0.91 0.84 0.65 0.43 0.31 0.23 0.22 0.22 0.23 0.26 0.26 0.32 0.40 0.45 0.48 0.49 0.47 0.46 0.40 0.34 0.32 0.31 0.33 0.34 0.39 0.41 0.44 0.49 0.54 0.55 0.56 0.57 0.59 0.65 0.76 0.90 0.98 0.99
0.16 0.19 0.27 0.40 0.38 0.41 0.56 0.61 0.40 0.41 0.47 0.50 0.47 0.38 0.30 0.24 0.20 0.23 0.25 0.26 0.25 0.27 0.32 0.40 0.45 0.49 0.52 0.53 0.54 0.49 0.43 0.38 0.36 0.33 0.31 0.31 0.35 0.38 0.42 0.44 0.45 0.45 0.47 0.54 0.61 0.68 0.76 0.84 0.83